Time,TemperatureF,DewpointF,PressureIn,WindDirection,WindDirectionDegrees,WindSpeedMPH,WindSpeedGustMPH,Humidity,HourlyPrecipIn,Conditions,Clouds,dailyrainin,SoftwareType,DateUTC
2013-02-06 00:01:00,49.1,44.8,29.90,WNW,292,0.0,0.0,85,0.00,OVC,,0.00,WeatherDisplay:10.37,2013-02-06 08:01:00,
2013-02-06 00:03:00,49.1,44.8,29.90,WNW,292,0.0,0.0,85,0.00,OVC,,0.00,WeatherDisplay:10.37,2013-02-06 08:03:00,
2013-02-06 00:04:00,49.1,44.8,29.90,WNW,292,0.0,0.0,85,0.00,OVC,,0.00,WeatherDisplay:10.37,2013-02-06 08:04:00,
2013-02-06 00:05:00,49.1,44.8,29.90,WNW,292,0.0,0.0,85,0.00,OVC,,0.00,WeatherDisplay:10.37,2013-02-06 08:05:00,
2013-02-06 00:08:00,49.1,44.8,29.90,WNW,292,0.0,0.0,85,0.00,OVC,,0.00,WeatherDisplay:10.37,2013-02-06 08:08:00,
2013-02-06 00:09:00,49.1,44.8,29.90,WNW,292,0.0,0.0,85,0.00,OVC,,0.00,WeatherDisplay:10.37,2013-02-06 08:09:00,
2013-02-06 00:10:00,49.1,44.8,29.90,WNW,292,0.0,0.0,85,0.00,OVC,,0.00,WeatherDisplay:10.37,2013-02-06 08:10:00,
2013-02-06 00:14:00,49.1,44.8,29.90,WNW,292,0.0,0.0,85,0.00,OVC,,0.00,WeatherDisplay:10.37,2013-02-06 08:14:00,
2013-02-06 00:15:00,49.1,44.8,29.90,WNW,292,0.0,0.0,85,0.00,OVC,,0.00,WeatherDisplay:10.37,2013-02-06 08:15:00,
2013-02-06 00:16:00,49.1,44.8,29.90,WNW,292,0.0,0.0,85,0.00,OVC,,0.00,WeatherDisplay:10.37,2013-02-06 08:16:00,
2013-02-06 00:18:00,49.1,44.8,29.90,WNW,292,0.0,0.0,85,0.00,OVC,,0.00,WeatherDisplay:10.37,2013-02-06 08:18:00,
2013-02-06 00:20:00,49.1,44.8,29.90,WNW,292,0.0,0.0,85,0.00,OVC,,0.00,WeatherDisplay:10.37,2013-02-06 08:20:00,
2013-02-06 00:22:00,48.9,44.3,29.90,WNW,292,0.0,0.0,84,0.00,OVC,,0.00,WeatherDisplay:10.37,2013-02-06 08:22:00,
2013-02-06 00:23:00,48.9,44.6,29.90,WNW,292,0.0,0.0,85,0.00,OVC,,0.00,WeatherDisplay:10.37,2013-02-06 08:23:00,
2013-02-06 00:26:00,48.9,44.6,29.90,WNW,292,0.0,0.0,85,0.00,OVC,,0.00,WeatherDisplay:10.37,2013-02-06 08:26:00,
2013-02-06 00:28:00,48.9,44.6,29.90,WNW,292,0.0,0.0,85,0.00,OVC,,0.00,WeatherDisplay:10.37,2013-02-06 08:28:00,
2013-02-06 00:29:00,48.9,44.6,29.90,WNW,292,0.0,0.0,85,0.00,OVC,,0.00,WeatherDisplay:10.37,2013-02-06 08:29:00,
2013-02-06 00:30:00,48.9,44.6,29.90,WNW,292,0.0,0.0,85,0.00,OVC,,0.00,WeatherDisplay:10.37,2013-02-06 08:30:00,
2013-02-06 00:32:00,48.9,44.3,29.90,WNW,292,0.0,0.0,84,0.00,OVC,,0.00,WeatherDisplay:10.37,2013-02-06 08:32:00,
2013-02-06 00:34:00,48.9,44.6,29.90,WNW,292,0.0,0.0,85,0.00,OVC,,0.00,WeatherDisplay:10.37,2013-02-06 08:34:00,
2013-02-06 00:35:00,48.9,44.6,29.90,WNW,292,0.0,0.0,85,0.00,OVC,,0.00,WeatherDisplay:10.37,2013-02-06 08:35:00,
2013-02-06 00:37:00,48.9,44.6,29.90,WNW,292,0.0,0.0,85,0.00,OVC,,0.00,WeatherDisplay:10.37,2013-02-06 08:37:00,
2013-02-06 00:40:00,48.9,44.6,29.90,WNW,292,0.0,0.0,85,0.00,OVC,,0.00,WeatherDisplay:10.37,2013-02-06 08:40:00,
2013-02-06 00:42:00,48.9,44.3,29.90,WNW,292,0.0,0.0,84,0.00,OVC,,0.00,WeatherDisplay:10.37,2013-02-06 08:42:00,
2013-02-06 00:45:00,48.9,44.6,29.90,WNW,292,0.0,0.0,85,0.00,OVC,,0.00,WeatherDisplay:10.37,2013-02-06 08:45:00,
2013-02-06 00:46:00,48.9,44.6,29.90,WNW,292,0.0,0.0,85,0.00,OVC,,0.00,WeatherDisplay:10.37,2013-02-06 08:46:00,
2013-02-06 00:47:00,48.9,44.6,29.90,WNW,292,0.0,0.0,85,0.00,OVC,,0.00,WeatherDisplay:10.37,2013-02-06 08:47:00,
2013-02-06 00:52:00,48.9,44.3,29.90,WNW,292,0.0,0.0,84,0.00,OVC,,0.00,WeatherDisplay:10.37,2013-02-06 08:52:00,
2013-02-06 00:53:00,48.9,44.3,29.90,WNW,292,0.0,0.0,84,0.00,OVC,,0.00,WeatherDisplay:10.37,2013-02-06 08:53:00,
2013-02-06 00:54:00,48.8,44.2,29.90,WNW,292,0.0,0.0,84,0.00,OVC,,0.00,WeatherDisplay:10.37,2013-02-06 08:54:00,
2013-02-06 00:57:00,48.8,44.2,29.90,WNW,292,0.0,0.0,84,0.00,OVC,,0.00,WeatherDisplay:10.37,2013-02-06 08:57:00,
2013-02-06 01:00:00,48.8,44.2,29.90,WNW,292,0.0,0.0,84,0.00,OVC,,0.00,WeatherDisplay:10.37,2013-02-06 09:00:00,
2013-02-06 01:03:00,48.8,44.2,29.90,WNW,292,0.0,0.0,84,0.00,OVC,,0.00,WeatherDisplay:10.37,2013-02-06 09:03:00,
2013-02-06 01:04:00,48.8,44.2,29.90,WNW,292,0.0,0.0,84,0.00,OVC,,0.00,WeatherDisplay:10.37,2013-02-06 09:04:00,
2013-02-06 01:05:00,48.8,44.2,29.90,WNW,292,0.0,0.0,84,0.00,OVC,,0.00,WeatherDisplay:10.37,2013-02-06 09:05:00,
2013-02-06 01:06:00,48.8,44.5,29.90,WNW,292,0.0,0.0,85,0.00,OVC,,0.00,WeatherDisplay:10.37,2013-02-06 09:06:00,
2013-02-06 01:08:00,48.8,44.5,29.90,WNW,292,0.0,0.0,85,0.00,OVC,,0.00,WeatherDisplay:10.37,2013-02-06 09:08:00,
2013-02-06 01:10:00,48.8,44.5,29.90,WNW,292,0.0,0.0,85,0.00,OVC,,0.00,WeatherDisplay:10.37,2013-02-06 09:10:00,
2013-02-06 01:12:00,48.8,44.5,29.90,WNW,292,0.0,0.0,85,0.00,OVC,,0.00,WeatherDisplay:10.37,2013-02-06 09:12:00,
2013-02-06 01:14:00,48.8,44.5,29.89,WNW,292,0.0,0.0,85,0.00,OVC,,0.00,WeatherDisplay:10.37,2013-02-06 09:14:00,
2013-02-06 01:15:00,48.8,44.5,29.89,WNW,292,0.0,0.0,85,0.00,OVC,,0.00,WeatherDisplay:10.37,2013-02-06 09:15:00,
2013-02-06 01:16:00,48.8,44.5,29.89,WNW,292,0.0,0.0,85,0.00,OVC,,0.00,WeatherDisplay:10.37,2013-02-06 09:16:00,
2013-02-06 01:18:00,48.8,44.5,29.89,WNW,292,0.0,0.0,85,0.00,OVC,,0.00,WeatherDisplay:10.37,2013-02-06 09:18:00,
2013-02-06 01:20:00,48.8,44.5,29.89,WNW,292,0.0,0.0,85,0.00,OVC,,0.00,WeatherDisplay:10.37,2013-02-06 09:20:00,
2013-02-06 01:22:00,48.8,44.5,29.89,WNW,292,0.0,0.0,85,0.00,OVC,,0.00,WeatherDisplay:10.37,2013-02-06 09:22:00,
2013-02-06 01:23:00,48.8,44.5,29.90,WNW,292,0.0,0.0,85,0.00,OVC,,0.00,WeatherDisplay:10.37,2013-02-06 09:23:00,
2013-02-06 01:25:00,48.8,44.5,29.90,WNW,292,0.0,0.0,85,0.00,OVC,,0.00,WeatherDisplay:10.37,2013-02-06 09:25:00,
2013-02-06 01:26:00,48.8,44.5,29.90,WNW,292,0.0,0.0,85,0.00,OVC,,0.00,WeatherDisplay:10.37,2013-02-06 09:26:00,
2013-02-06 01:27:00,48.8,44.5,29.90,WNW,292,0.0,0.0,85,0.00,OVC,,0.00,WeatherDisplay:10.37,2013-02-06 09:27:00,
2013-02-06 01:29:00,48.8,44.5,29.90,WNW,292,0.0,0.0,85,0.00,OVC,,0.00,WeatherDisplay:10.37,2013-02-06 09:29:00,
2013-02-06 01:30:00,48.8,44.5,29.90,WNW,292,0.0,0.0,85,0.00,OVC,,0.00,WeatherDisplay:10.37,2013-02-06 09:30:00,
2013-02-06 01:32:00,48.8,44.5,29.90,WNW,292,0.0,0.0,85,0.00,OVC,,0.00,WeatherDisplay:10.37,2013-02-06 09:32:00,
2013-02-06 01:33:00,48.8,44.5,29.90,WNW,292,0.0,0.0,85,0.00,OVC,,0.00,WeatherDisplay:10.37,2013-02-06 09:33:00,
2013-02-06 01:35:00,48.8,44.5,29.90,WNW,292,0.0,0.0,85,0.00,OVC,,0.00,WeatherDisplay:10.37,2013-02-06 09:35:00,
2013-02-06 01:36:00,48.8,44.5,29.90,WNW,292,0.0,0.0,85,0.00,OVC,,0.00,WeatherDisplay:10.37,2013-02-06 09:36:00,
2013-02-06 01:39:00,48.8,44.5,29.90,WNW,292,0.0,0.0,85,0.00,OVC,,0.00,WeatherDisplay:10.37,2013-02-06 09:39:00,
2013-02-06 01:40:00,48.8,44.5,29.90,WNW,292,0.0,0.0,85,0.00,OVC,,0.00,WeatherDisplay:10.37,2013-02-06 09:40:00,
2013-02-06 01:44:00,48.8,44.5,29.90,WNW,292,0.0,0.0,85,0.00,OVC,,0.00,WeatherDisplay:10.37,2013-02-06 09:44:00,
2013-02-06 01:46:00,48.8,44.5,29.90,WNW,292,0.0,0.0,85,0.00,OVC,,0.00,WeatherDisplay:10.37,2013-02-06 09:46:00,
2013-02-06 01:49:00,48.8,44.5,29.90,WNW,292,0.0,0.0,85,0.00,OVC,,0.00,WeatherDisplay:10.37,2013-02-06 09:49:00,
2013-02-06 01:50:00,48.8,44.5,29.90,WNW,292,0.0,0.0,85,0.00,OVC,,0.00,WeatherDisplay:10.37,2013-02-06 09:50:00,
2013-02-06 01:51:00,48.8,44.5,29.90,WNW,292,0.0,0.0,85,0.00,OVC,,0.00,WeatherDisplay:10.37,2013-02-06 09:51:00,
2013-02-06 01:55:00,48.8,44.5,29.90,WSW,255,0.0,0.0,85,0.00,OVC,,0.00,WeatherDisplay:10.37,2013-02-06 09:55:00,
2013-02-06 01:56:00,48.8,44.5,29.90,South,186,0.0,0.0,85,0.00,OVC,,0.00,WeatherDisplay:10.37,2013-02-06 09:56:00,
2013-02-06 02:01:00,48.8,44.5,29.90,WSW,250,0.0,0.0,85,0.00,OVC,,0.00,WeatherDisplay:10.37,2013-02-06 10:01:00,
2013-02-06 02:02:00,48.8,44.5,29.90,WSW,250,0.0,0.0,85,0.00,OVC,,0.00,WeatherDisplay:10.37,2013-02-06 10:02:00,
2013-02-06 02:03:00,48.8,44.5,29.90,WSW,245,0.0,0.0,85,0.00,OVC,,0.00,WeatherDisplay:10.37,2013-02-06 10:03:00,
2013-02-06 02:06:00,48.6,44.3,29.91,WSW,246,0.0,0.0,85,0.00,OVC,,0.00,WeatherDisplay:10.37,2013-02-06 10:06:00,
2013-02-06 02:08:00,48.6,44.3,29.91,WSW,246,0.0,0.0,85,0.00,OVC,,0.00,WeatherDisplay:10.37,2013-02-06 10:08:00,
2013-02-06 02:10:00,48.6,44.3,29.91,WSW,246,0.0,0.0,85,0.00,OVC,,0.00,WeatherDisplay:10.37,2013-02-06 10:10:00,
2013-02-06 02:12:00,48.5,44.2,29.91,WSW,246,0.0,0.0,85,0.00,OVC,,0.00,WeatherDisplay:10.37,2013-02-06 10:12:00,
2013-02-06 02:13:00,48.5,44.5,29.91,WSW,246,0.0,0.0,86,0.00,OVC,,0.00,WeatherDisplay:10.37,2013-02-06 10:13:00,
2013-02-06 02:15:00,48.5,44.5,29.90,WSW,246,0.0,0.0,86,0.00,OVC,,0.00,WeatherDisplay:10.37,2013-02-06 10:15:00,
2013-02-06 02:17:00,48.5,44.2,29.91,WSW,246,0.0,0.0,85,0.00,OVC,,0.00,WeatherDisplay:10.37,2013-02-06 10:17:00,
2013-02-06 02:19:00,48.3,44.0,29.91,WSW,246,0.0,0.0,85,0.00,OVC,,0.00,WeatherDisplay:10.37,2013-02-06 10:19:00,
2013-02-06 02:20:00,48.3,44.3,29.91,WSW,252,0.0,0.0,86,0.00,OVC,,0.00,WeatherDisplay:10.37,2013-02-06 10:20:00,
2013-02-06 02:22:00,48.3,44.3,29.91,WSW,252,0.0,0.0,86,0.00,OVC,,0.00,WeatherDisplay:10.37,2013-02-06 10:22:00,
2013-02-06 02:24:00,48.2,44.2,29.91,WSW,252,0.0,0.0,86,0.00,OVC,,0.00,WeatherDisplay:10.37,2013-02-06 10:24:00,
2013-02-06 02:25:00,48.2,44.2,29.91,WSW,252,0.0,0.0,86,0.00,OVC,,0.00,WeatherDisplay:10.37,2013-02-06 10:25:00,
2013-02-06 02:27:00,48.2,44.2,29.91,WSW,252,0.0,0.0,86,0.00,OVC,,0.00,WeatherDisplay:10.37,2013-02-06 10:27:00,
2013-02-06 02:28:00,48.2,44.2,29.91,WSW,252,0.0,0.0,86,0.00,OVC,,0.00,WeatherDisplay:10.37,2013-02-06 10:28:00,
2013-02-06 02:29:00,48.2,44.2,29.91,WSW,252,0.0,0.0,86,0.00,OVC,,0.00,WeatherDisplay:10.37,2013-02-06 10:29:00,
2013-02-06 02:32:00,48.2,44.2,29.91,WSW,252,0.0,0.0,86,0.00,OVC,,0.00,WeatherDisplay:10.37,2013-02-06 10:32:00,
2013-02-06 02:33:00,48.2,44.2,29.91,WSW,252,0.0,0.0,86,0.00,OVC,,0.00,WeatherDisplay:10.37,2013-02-06 10:33:00,
2013-02-06 02:34:00,48.0,44.0,29.91,WSW,252,0.0,0.0,86,0.00,OVC,,0.00,WeatherDisplay:10.37,2013-02-06 10:34:00,
2013-02-06 02:35:00,48.1,44.1,29.91,WSW,252,0.0,0.0,86,0.00,OVC,,0.00,WeatherDisplay:10.37,2013-02-06 10:35:00,
2013-02-06 02:39:00,48.0,44.0,29.91,WSW,252,0.0,0.0,86,0.00,OVC,,0.00,WeatherDisplay:10.37,2013-02-06 10:39:00,
2013-02-06 02:40:00,48.0,44.0,29.91,WSW,252,0.0,1.0,86,0.00,OVC,,0.00,WeatherDisplay:10.37,2013-02-06 10:40:00,
2013-02-06 02:41:00,48.0,44.0,29.90,WSW,252,0.0,0.0,86,0.00,OVC,,0.00,WeatherDisplay:10.37,2013-02-06 10:41:00,
2013-02-06 02:45:00,48.0,44.0,29.90,WSW,252,0.0,0.0,86,0.00,OVC,,0.00,WeatherDisplay:10.37,2013-02-06 10:45:00,
2013-02-06 02:47:00,48.0,44.0,29.90,WSW,252,0.0,0.0,86,0.00,OVC,,0.00,WeatherDisplay:10.37,2013-02-06 10:47:00,
2013-02-06 02:48:00,48.0,44.0,29.90,WSW,252,0.0,0.0,86,0.00,OVC,,0.00,WeatherDisplay:10.37,2013-02-06 10:48:00,
2013-02-06 02:50:00,48.0,44.0,29.90,WSW,252,0.0,0.0,86,0.00,OVC,,0.00,WeatherDisplay:10.37,2013-02-06 10:50:00,
2013-02-06 02:52:00,47.9,43.9,29.90,WSW,252,0.0,0.0,86,0.00,OVC,,0.00,WeatherDisplay:10.37,2013-02-06 10:52:00,
2013-02-06 02:54:00,47.9,43.9,29.90,WSW,252,0.0,0.0,86,0.00,OVC,,0.00,WeatherDisplay:10.37,2013-02-06 10:54:00,
2013-02-06 02:55:00,47.9,43.9,29.90,WSW,252,0.0,0.0,86,0.00,OVC,,0.00,WeatherDisplay:10.37,2013-02-06 10:55:00,
2013-02-06 02:59:00,47.9,43.9,29.90,WSW,252,0.0,0.0,86,0.00,OVC,,0.00,WeatherDisplay:10.37,2013-02-06 10:59:00,
2013-02-06 03:00:00,47.9,43.9,29.90,WSW,252,0.0,0.0,86,0.00,OVC,,0.00,WeatherDisplay:10.37,2013-02-06 11:00:00,
2013-02-06 03:02:00,47.9,43.9,29.90,WSW,252,0.0,0.0,86,0.00,OVC,,0.00,WeatherDisplay:10.37,2013-02-06 11:02:00,
2013-02-06 03:05:00,47.9,44.2,29.90,WSW,252,0.0,0.0,87,0.00,OVC,,0.00,WeatherDisplay:10.37,2013-02-06 11:05:00,
2013-02-06 03:07:00,47.9,44.2,29.90,WSW,252,0.0,0.0,87,0.00,OVC,,0.00,WeatherDisplay:10.37,2013-02-06 11:07:00,
2013-02-06 03:10:00,47.9,44.2,29.89,WSW,252,0.0,0.0,87,0.00,OVC,,0.00,WeatherDisplay:10.37,2013-02-06 11:10:00,
2013-02-06 03:13:00,47.9,44.2,29.89,WSW,252,0.0,0.0,87,0.00,OVC,,0.00,WeatherDisplay:10.37,2013-02-06 11:13:00,
2013-02-06 03:14:00,47.9,44.2,29.89,WSW,252,0.0,0.0,87,0.00,OVC,,0.00,WeatherDisplay:10.37,2013-02-06 11:14:00,
2013-02-06 03:15:00,47.9,44.2,29.89,WSW,252,0.0,0.0,87,0.00,OVC,,0.00,WeatherDisplay:10.37,2013-02-06 11:15:00,
2013-02-06 03:19:00,47.9,44.2,29.89,WSW,252,0.0,0.0,87,0.00,OVC,,0.00,WeatherDisplay:10.37,2013-02-06 11:19:00,
2013-02-06 03:20:00,47.9,44.2,29.89,WSW,252,0.0,0.0,87,0.00,OVC,,0.00,WeatherDisplay:10.37,2013-02-06 11:20:00,
2013-02-06 03:21:00,47.9,44.2,29.89,WSW,252,0.0,0.0,87,0.00,OVC,,0.00,WeatherDisplay:10.37,2013-02-06 11:21:00,
2013-02-06 03:22:00,47.9,44.2,29.89,WSW,252,0.0,0.0,87,0.00,OVC,,0.00,WeatherDisplay:10.37,2013-02-06 11:22:00,
2013-02-06 03:25:00,47.9,44.2,29.89,WSW,252,0.0,0.0,87,0.00,OVC,,0.00,WeatherDisplay:10.37,2013-02-06 11:25:00,
2013-02-06 03:26:00,47.9,44.2,29.89,WSW,252,0.0,0.1,87,0.00,OVC,,0.00,WeatherDisplay:10.37,2013-02-06 11:26:00,
2013-02-06 03:27:00,47.9,44.2,29.89,WSW,252,1.1,0.0,87,0.00,OVC,,0.00,WeatherDisplay:10.37,2013-02-06 11:27:00,
2013-02-06 03:28:00,47.9,44.2,29.89,WSW,252,1.1,0.0,87,0.00,OVC,,0.00,WeatherDisplay:10.37,2013-02-06 11:28:00,
2013-02-06 03:31:00,47.7,44.0,29.90,WSW,252,0.0,0.0,87,0.00,OVC,,0.00,WeatherDisplay:10.37,2013-02-06 11:31:00,
2013-02-06 03:33:00,47.7,44.0,29.90,WSW,252,0.0,0.0,87,0.00,OVC,,0.00,WeatherDisplay:10.37,2013-02-06 11:33:00,
2013-02-06 03:34:00,47.7,44.0,29.89,WSW,252,0.0,0.0,87,0.00,OVC,,0.00,WeatherDisplay:10.37,2013-02-06 11:34:00,
2013-02-06 03:37:00,47.7,44.0,29.89,WSW,252,0.0,0.0,87,0.00,OVC,,0.00,WeatherDisplay:10.37,2013-02-06 11:37:00,
2013-02-06 03:39:00,47.7,44.0,29.89,WSW,252,0.0,0.0,87,0.00,OVC,,0.00,WeatherDisplay:10.37,2013-02-06 11:39:00,
2013-02-06 03:40:00,47.7,44.0,29.89,WSW,252,0.0,0.0,87,0.00,OVC,,0.00,WeatherDisplay:10.37,2013-02-06 11:40:00,
2013-02-06 03:44:00,47.7,44.0,29.89,WSW,252,0.0,0.0,87,0.00,OVC,,0.00,WeatherDisplay:10.37,2013-02-06 11:44:00,
2013-02-06 03:45:00,47.7,44.0,29.89,WSW,252,0.0,0.0,87,0.00,OVC,,0.00,WeatherDisplay:10.37,2013-02-06 11:45:00,
2013-02-06 03:46:00,47.7,44.0,29.90,WSW,252,0.0,0.0,87,0.00,OVC,,0.00,WeatherDisplay:10.37,2013-02-06 11:46:00,
2013-02-06 03:50:00,47.7,44.0,29.90,WSW,253,0.0,1.0,87,0.00,OVC,,0.00,WeatherDisplay:10.37,2013-02-06 11:50:00,
2013-02-06 03:52:00,47.7,44.0,29.90,WSW,255,1.1,0.0,87,0.00,OVC,,0.00,WeatherDisplay:10.37,2013-02-06 11:52:00,
2013-02-06 03:54:00,47.7,44.0,29.90,WSW,255,0.0,0.0,87,0.00,OVC,,0.00,WeatherDisplay:10.37,2013-02-06 11:54:00,
2013-02-06 03:56:00,47.7,44.0,29.90,WSW,255,0.0,0.0,87,0.00,OVC,,0.00,WeatherDisplay:10.37,2013-02-06 11:56:00,
2013-02-06 03:57:00,47.7,44.0,29.90,WSW,255,0.0,0.0,87,0.00,OVC,,0.00,WeatherDisplay:10.37,2013-02-06 11:57:00,
2013-02-06 03:59:00,47.7,44.0,29.90,West,273,0.0,0.0,87,0.00,OVC,,0.00,WeatherDisplay:10.37,2013-02-06 11:59:00,
2013-02-06 04:00:00,47.7,44.0,29.90,West,260,0.0,1.0,87,0.00,OVC,,0.00,WeatherDisplay:10.37,2013-02-06 12:00:00,
2013-02-06 04:04:00,47.7,44.0,29.90,West,274,0.0,0.0,87,0.00,-DZ,,0.00,WeatherDisplay:10.37,2013-02-06 12:04:00,
2013-02-06 04:05:00,47.7,44.0,29.90,West,270,0.0,0.0,87,0.00,-DZ,,0.00,WeatherDisplay:10.37,2013-02-06 12:05:00,
2013-02-06 04:10:00,47.6,43.9,29.90,WSW,253,0.0,0.0,87,0.00,-DZ,,0.00,WeatherDisplay:10.37,2013-02-06 12:10:00,
2013-02-06 04:11:00,47.6,43.9,29.90,WSW,256,0.0,0.0,87,0.00,-DZ,,0.00,WeatherDisplay:10.37,2013-02-06 12:11:00,
2013-02-06 04:15:00,47.4,43.7,29.90,WSW,256,0.0,0.0,87,0.00,-DZ,,0.00,WeatherDisplay:10.37,2013-02-06 12:15:00,
2013-02-06 04:16:00,47.4,43.7,29.90,WSW,256,0.0,0.0,87,0.00,-DZ,,0.00,WeatherDisplay:10.37,2013-02-06 12:16:00,
2013-02-06 04:19:00,47.3,43.6,29.90,WSW,256,0.0,0.0,87,0.00,-DZ,,0.00,WeatherDisplay:10.37,2013-02-06 12:19:00,
2013-02-06 04:20:00,47.3,43.6,29.90,WSW,256,0.0,0.0,87,0.00,-DZ,,0.00,WeatherDisplay:10.37,2013-02-06 12:20:00,
2013-02-06 04:22:00,47.3,43.6,29.90,WSW,256,0.0,0.0,87,0.00,-DZ,,0.00,WeatherDisplay:10.37,2013-02-06 12:22:00,
2013-02-06 04:24:00,47.3,43.6,29.90,SSW,201,0.0,0.0,87,0.00,-DZ,,0.00,WeatherDisplay:10.37,2013-02-06 12:24:00,
2013-02-06 04:25:00,47.3,43.6,29.90,WSW,247,0.0,0.0,87,0.00,-DZ,,0.00,WeatherDisplay:10.37,2013-02-06 12:25:00,
2013-02-06 04:28:00,47.1,43.4,29.90,WSW,250,0.0,0.0,87,0.00,-DZ,,0.00,WeatherDisplay:10.37,2013-02-06 12:28:00,
2013-02-06 04:30:00,47.1,43.4,29.91,WSW,247,0.0,0.0,87,0.00,-DZ,,0.00,WeatherDisplay:10.37,2013-02-06 12:30:00,
2013-02-06 04:31:00,47.1,43.4,29.91,WSW,250,0.0,0.0,87,0.00,-DZ,,0.00,WeatherDisplay:10.37,2013-02-06 12:31:00,
2013-02-06 04:33:00,47.0,43.3,29.91,West,269,0.0,0.0,87,0.00,-DZ,,0.00,WeatherDisplay:10.37,2013-02-06 12:33:00,
2013-02-06 04:36:00,47.0,43.3,29.91,West,269,0.0,0.0,87,0.00,-DZ,,0.00,WeatherDisplay:10.37,2013-02-06 12:36:00,
2013-02-06 04:38:00,46.8,43.1,29.91,West,269,0.0,0.0,87,0.00,-DZ,,0.00,WeatherDisplay:10.37,2013-02-06 12:38:00,
2013-02-06 04:39:00,46.8,43.1,29.91,West,269,0.0,0.0,87,0.00,-DZ,,0.00,WeatherDisplay:10.37,2013-02-06 12:39:00,
2013-02-06 04:41:00,46.8,43.1,29.91,West,269,0.0,0.0,87,0.00,-DZ,,0.00,WeatherDisplay:10.37,2013-02-06 12:41:00,
2013-02-06 04:43:00,46.7,43.0,29.91,West,269,0.0,0.0,87,0.00,-DZ,,0.00,WeatherDisplay:10.37,2013-02-06 12:43:00,
2013-02-06 04:44:00,46.7,43.0,29.91,West,269,0.0,0.0,87,0.00,-DZ,,0.00,WeatherDisplay:10.37,2013-02-06 12:44:00,
2013-02-06 04:45:00,46.7,43.0,29.90,West,269,0.0,0.0,87,0.00,-DZ,,0.00,WeatherDisplay:10.37,2013-02-06 12:45:00,
2013-02-06 04:47:00,46.7,43.0,29.90,West,269,0.0,0.0,87,0.00,-DZ,,0.00,WeatherDisplay:10.37,2013-02-06 12:47:00,
2013-02-06 04:50:00,46.5,42.8,29.90,South,186,0.0,0.0,87,0.00,-DZ,,0.00,WeatherDisplay:10.37,2013-02-06 12:50:00,
2013-02-06 04:52:00,46.5,42.8,29.90,South,186,0.0,0.0,87,0.00,-DZ,,0.00,WeatherDisplay:10.37,2013-02-06 12:52:00,
2013-02-06 04:56:00,46.5,42.8,29.91,South,186,0.0,0.0,87,0.00,-DZ,,0.00,WeatherDisplay:10.37,2013-02-06 12:56:00,
2013-02-06 04:57:00,46.5,42.8,29.91,South,186,0.0,0.0,87,0.00,-DZ,,0.00,WeatherDisplay:10.37,2013-02-06 12:57:00,
2013-02-06 04:58:00,46.5,42.8,29.91,South,186,0.0,0.0,87,0.00,-DZ,,0.00,WeatherDisplay:10.37,2013-02-06 12:58:00,
2013-02-06 04:59:00,46.5,42.8,29.91,South,186,0.0,0.0,87,0.00,-DZ,,0.00,WeatherDisplay:10.37,2013-02-06 12:59:00,
2013-02-06 05:01:00,46.5,42.8,29.91,SSW,196,0.0,0.0,87,0.00,OVC,,0.00,WeatherDisplay:10.37,2013-02-06 13:01:00,
2013-02-06 05:04:00,46.4,42.7,29.91,SSW,196,0.0,0.0,87,0.00,OVC,,0.00,WeatherDisplay:10.37,2013-02-06 13:04:00,
2013-02-06 05:07:00,46.4,42.7,29.91,SSW,196,0.0,0.0,87,0.00,OVC,,0.00,WeatherDisplay:10.37,2013-02-06 13:07:00,
2013-02-06 05:09:00,46.4,42.7,29.91,SSW,196,0.0,0.0,87,0.00,OVC,,0.00,WeatherDisplay:10.37,2013-02-06 13:09:00,
2013-02-06 05:10:00,46.4,42.7,29.91,SSW,196,0.0,0.0,87,0.00,OVC,,0.00,WeatherDisplay:10.37,2013-02-06 13:10:00,
2013-02-06 05:13:00,46.4,42.7,29.91,SSW,196,0.0,0.0,87,0.00,OVC,,0.00,WeatherDisplay:10.37,2013-02-06 13:13:00,
2013-02-06 05:14:00,46.4,42.7,29.91,SSW,196,0.0,0.0,87,0.00,OVC,,0.00,WeatherDisplay:10.37,2013-02-06 13:14:00,
2013-02-06 05:15:00,46.4,42.7,29.91,SSW,196,0.0,0.0,87,0.00,OVC,,0.00,WeatherDisplay:10.37,2013-02-06 13:15:00,
2013-02-06 05:19:00,46.4,42.7,29.91,SSW,196,0.0,0.0,87,0.00,OVC,,0.00,WeatherDisplay:10.37,2013-02-06 13:19:00,
2013-02-06 05:20:00,46.4,42.7,29.91,SSW,196,0.0,0.0,87,0.00,OVC,,0.00,WeatherDisplay:10.37,2013-02-06 13:20:00,
2013-02-06 05:21:00,46.4,42.7,29.91,SSW,196,0.0,0.0,87,0.00,OVC,,0.00,WeatherDisplay:10.37,2013-02-06 13:21:00,
2013-02-06 05:25:00,46.2,42.5,29.91,SSW,196,0.0,0.0,87,0.00,OVC,,0.00,WeatherDisplay:10.37,2013-02-06 13:25:00,
2013-02-06 05:26:00,46.2,42.5,29.91,SSW,196,0.0,0.0,87,0.00,OVC,,0.00,WeatherDisplay:10.37,2013-02-06 13:26:00,
2013-02-06 05:27:00,46.2,42.5,29.91,SSW,196,0.0,0.0,87,0.00,OVC,,0.00,WeatherDisplay:10.37,2013-02-06 13:27:00,
2013-02-06 05:30:00,46.2,42.5,29.92,SSW,196,0.0,0.0,87,0.00,OVC,,0.00,WeatherDisplay:10.37,2013-02-06 13:30:00,
2013-02-06 05:31:00,46.2,42.5,29.92,SSW,196,0.0,0.0,87,0.00,OVC,,0.00,WeatherDisplay:10.37,2013-02-06 13:31:00,
2013-02-06 05:33:00,46.2,42.5,29.92,SSW,196,0.0,0.0,87,0.00,OVC,,0.00,WeatherDisplay:10.37,2013-02-06 13:33:00,
2013-02-06 05:36:00,46.2,42.5,29.92,SSW,195,0.0,0.0,87,0.00,OVC,,0.00,WeatherDisplay:10.37,2013-02-06 13:36:00,
2013-02-06 05:38:00,46.2,42.5,29.92,SSW,196,0.0,0.0,87,0.00,OVC,,0.00,WeatherDisplay:10.37,2013-02-06 13:38:00,
2013-02-06 05:40:00,46.2,42.5,29.92,SSW,195,0.0,0.0,87,0.00,OVC,,0.00,WeatherDisplay:10.37,2013-02-06 13:40:00,
2013-02-06 05:41:00,46.2,42.5,29.92,SSW,195,0.0,0.0,87,0.00,OVC,,0.00,WeatherDisplay:10.37,2013-02-06 13:41:00,
2013-02-06 05:44:00,46.2,42.5,29.92,SSW,196,0.0,0.0,87,0.00,OVC,,0.00,WeatherDisplay:10.37,2013-02-06 13:44:00,
2013-02-06 05:46:00,46.2,42.5,29.92,SSW,195,0.0,0.0,87,0.00,OVC,,0.00,WeatherDisplay:10.37,2013-02-06 13:46:00,
2013-02-06 05:47:00,46.2,42.5,29.92,SSW,195,0.0,0.0,87,0.00,OVC,,0.00,WeatherDisplay:10.37,2013-02-06 13:47:00,
2013-02-06 05:48:00,46.2,42.5,29.92,SSW,195,0.0,0.0,87,0.00,OVC,,0.00,WeatherDisplay:10.37,2013-02-06 13:48:00,
2013-02-06 05:49:00,46.2,42.5,29.92,SSW,195,0.0,0.0,87,0.00,OVC,,0.00,WeatherDisplay:10.37,2013-02-06 13:49:00,
2013-02-06 05:52:00,46.2,42.5,29.92,SSW,196,0.0,0.0,87,0.00,OVC,,0.00,WeatherDisplay:10.37,2013-02-06 13:52:00,
2013-02-06 05:53:00,46.2,42.5,29.92,SSW,196,0.0,0.0,87,0.00,OVC,,0.00,WeatherDisplay:10.37,2013-02-06 13:53:00,
2013-02-06 05:54:00,46.2,42.5,29.92,SSW,196,0.0,0.0,87,0.00,OVC,,0.00,WeatherDisplay:10.37,2013-02-06 13:54:00,
2013-02-06 05:55:00,46.2,42.5,29.92,SSW,196,0.0,0.0,87,0.00,OVC,,0.00,WeatherDisplay:10.37,2013-02-06 13:55:00,
2013-02-06 05:58:00,46.2,42.5,29.92,SSW,196,0.0,0.0,87,0.00,OVC,,0.00,WeatherDisplay:10.37,2013-02-06 13:58:00,
2013-02-06 06:00:00,46.2,42.5,29.92,SSW,196,0.0,0.0,87,0.00,OVC,,0.00,WeatherDisplay:10.37,2013-02-06 14:00:00,
2013-02-06 06:03:00,46.2,42.5,29.91,North,0,255.3,0.0,87,0.00,OVC,,0.00,WeatherDisplay:10.37,2013-02-06 14:03:00,
2013-02-06 06:05:00,46.2,42.5,29.92,North,0,255.3,0.0,87,0.00,OVC,,0.00,WeatherDisplay:10.37,2013-02-06 14:05:00,
2013-02-06 06:06:00,46.2,42.5,29.92,North,0,255.3,0.0,87,0.00,OVC,,0.00,WeatherDisplay:10.37,2013-02-06 14:06:00,
2013-02-06 06:09:00,46.2,42.5,29.92,North,0,255.3,0.0,87,0.00,OVC,,0.00,WeatherDisplay:10.37,2013-02-06 14:09:00,
2013-02-06 06:10:00,46.2,42.5,29.92,North,0,255.3,0.0,87,0.00,OVC,,0.00,WeatherDisplay:10.37,2013-02-06 14:10:00,
2013-02-06 06:13:00,46.2,42.5,29.92,North,0,255.3,0.0,87,0.00,OVC,,0.00,WeatherDisplay:10.37,2013-02-06 14:13:00,
2013-02-06 06:14:00,46.2,42.5,29.92,North,0,255.3,0.0,87,0.00,OVC,,0.00,WeatherDisplay:10.37,2013-02-06 14:14:00,
2013-02-06 06:19:00,46.2,42.5,29.92,North,0,255.3,0.0,87,0.00,OVC,,0.00,WeatherDisplay:10.37,2013-02-06 14:19:00,
2013-02-06 06:20:00,46.2,42.5,29.92,North,0,255.3,0.0,87,0.00,OVC,,0.00,WeatherDisplay:10.37,2013-02-06 14:20:00,
2013-02-06 06:25:00,46.2,42.5,29.92,North,0,255.3,0.0,87,0.00,OVC,,0.00,WeatherDisplay:10.37,2013-02-06 14:25:00,
2013-02-06 06:28:00,46.2,42.5,29.92,North,0,255.3,0.0,87,0.00,OVC,,0.00,WeatherDisplay:10.37,2013-02-06 14:28:00,
2013-02-06 06:30:00,46.2,42.5,29.93,North,0,255.3,0.0,87,0.00,OVC,,0.00,WeatherDisplay:10.37,2013-02-06 14:30:00,
2013-02-06 06:31:00,46.2,42.5,29.93,North,0,255.3,0.0,87,0.00,OVC,,0.00,WeatherDisplay:10.37,2013-02-06 14:31:00,
2013-02-06 06:33:00,46.2,42.5,29.93,North,0,255.3,0.0,87,0.00,OVC,,0.00,WeatherDisplay:10.37,2013-02-06 14:33:00,
2013-02-06 06:35:00,46.2,42.5,29.93,North,3,0.0,255.0,87,0.00,OVC,,0.00,WeatherDisplay:10.37,2013-02-06 14:35:00,
2013-02-06 06:36:00,46.2,42.5,29.93,North,0,255.3,0.0,87,0.00,OVC,,0.00,WeatherDisplay:10.37,2013-02-06 14:36:00,
2013-02-06 06:37:00,46.2,42.5,29.93,North,0,255.3,0.0,87,0.00,OVC,,0.00,WeatherDisplay:10.37,2013-02-06 14:37:00,
2013-02-06 06:42:00,46.2,42.5,29.93,North,0,255.3,0.0,87,0.00,OVC,,0.00,WeatherDisplay:10.37,2013-02-06 14:42:00,
2013-02-06 06:43:00,46.2,42.5,29.93,North,0,255.3,0.0,87,0.00,OVC,,0.00,WeatherDisplay:10.37,2013-02-06 14:43:00,
2013-02-06 06:44:00,46.2,42.5,29.93,North,0,255.3,0.0,87,0.00,OVC,,0.00,WeatherDisplay:10.37,2013-02-06 14:44:00,
2013-02-06 06:47:00,46.2,42.5,29.93,North,0,255.3,0.0,87,0.00,OVC,,0.00,WeatherDisplay:10.37,2013-02-06 14:47:00,
2013-02-06 06:48:00,46.2,42.5,29.93,North,0,255.3,0.0,87,0.00,OVC,,0.00,WeatherDisplay:10.37,2013-02-06 14:48:00,
2013-02-06 06:49:00,46.2,42.5,29.94,North,0,255.3,0.0,87,0.00,OVC,,0.00,WeatherDisplay:10.37,2013-02-06 14:49:00,
2013-02-06 06:51:00,46.2,42.5,29.94,North,0,255.3,0.0,87,0.00,OVC,,0.00,WeatherDisplay:10.37,2013-02-06 14:51:00,
2013-02-06 06:53:00,46.2,42.5,29.93,North,0,255.3,0.0,87,0.00,OVC,,0.00,WeatherDisplay:10.37,2013-02-06 14:53:00,
2013-02-06 06:54:00,46.2,42.5,29.93,North,0,255.3,0.0,87,0.00,OVC,,0.00,WeatherDisplay:10.37,2013-02-06 14:54:00,
2013-02-06 06:55:00,46.2,42.5,29.93,North,1,0.0,255.0,87,0.00,OVC,,0.00,WeatherDisplay:10.37,2013-02-06 14:55:00,
2013-02-06 06:56:00,46.2,42.5,29.93,North,0,255.3,0.0,87,0.00,OVC,,0.00,WeatherDisplay:10.37,2013-02-06 14:56:00,
2013-02-06 06:59:00,46.2,42.5,29.93,North,0,255.3,0.0,87,0.00,OVC,,0.00,WeatherDisplay:10.37,2013-02-06 14:59:00,
2013-02-06 07:00:00,46.2,42.5,29.93,North,3,0.0,255.0,87,0.00,OVC,,0.00,WeatherDisplay:10.37,2013-02-06 15:00:00,
2013-02-06 07:02:00,46.2,42.5,29.93,North,0,255.3,0.0,87,0.00,OVC,,0.00,WeatherDisplay:10.37,2013-02-06 15:02:00,
2013-02-06 07:05:00,46.2,42.5,29.93,North,0,255.3,0.0,87,0.00,OVC,,0.00,WeatherDisplay:10.37,2013-02-06 15:05:00,
2013-02-06 07:07:00,46.2,42.5,29.93,North,0,255.3,0.0,87,0.00,OVC,,0.00,WeatherDisplay:10.37,2013-02-06 15:07:00,
2013-02-06 07:10:00,46.2,42.5,29.93,North,3,0.0,255.0,87,0.00,OVC,,0.00,WeatherDisplay:10.37,2013-02-06 15:10:00,
2013-02-06 07:13:00,46.2,42.5,29.94,North,0,255.3,0.0,87,0.00,OVC,,0.00,WeatherDisplay:10.37,2013-02-06 15:13:00,
2013-02-06 07:14:00,46.2,42.5,29.94,North,0,255.3,0.0,87,0.00,OVC,,0.00,WeatherDisplay:10.37,2013-02-06 15:14:00,
2013-02-06 07:15:00,46.2,42.5,29.94,North,0,255.3,0.0,87,0.00,OVC,,0.00,WeatherDisplay:10.37,2013-02-06 15:15:00,
2013-02-06 07:16:00,46.2,42.5,29.94,North,0,255.3,0.0,87,0.00,OVC,,0.00,WeatherDisplay:10.37,2013-02-06 15:16:00,
2013-02-06 07:20:00,46.2,42.5,29.94,North,1,0.0,255.0,87,0.00,OVC,,0.00,WeatherDisplay:10.37,2013-02-06 15:20:00,
2013-02-06 07:21:00,46.2,42.5,29.94,North,0,255.3,0.0,87,0.00,OVC,,0.00,WeatherDisplay:10.37,2013-02-06 15:21:00,
2013-02-06 07:22:00,46.2,42.5,29.94,North,0,255.3,0.0,87,0.00,OVC,,0.00,WeatherDisplay:10.37,2013-02-06 15:22:00,
2013-02-06 07:25:00,46.2,42.5,29.94,North,0,255.3,0.0,87,0.00,OVC,,0.00,WeatherDisplay:10.37,2013-02-06 15:25:00,
2013-02-06 07:26:00,46.2,42.5,29.94,North,0,255.3,0.0,87,0.00,OVC,,0.00,WeatherDisplay:10.37,2013-02-06 15:26:00,
2013-02-06 07:31:00,46.2,42.5,29.95,North,0,255.3,0.0,87,0.00,OVC,,0.00,WeatherDisplay:10.37,2013-02-06 15:31:00,
2013-02-06 07:32:00,46.2,42.5,29.95,North,0,255.3,0.0,87,0.00,OVC,,0.00,WeatherDisplay:10.37,2013-02-06 15:32:00,
2013-02-06 07:34:00,46.2,42.5,29.95,North,0,255.3,0.0,87,0.00,OVC,,0.00,WeatherDisplay:10.37,2013-02-06 15:34:00,
2013-02-06 07:36:00,46.2,42.5,29.95,North,0,255.3,0.0,87,0.00,OVC,,0.00,WeatherDisplay:10.37,2013-02-06 15:36:00,
2013-02-06 07:37:00,46.2,42.5,29.95,North,0,255.3,0.0,87,0.00,OVC,,0.00,WeatherDisplay:10.37,2013-02-06 15:37:00,
2013-02-06 07:39:00,46.2,42.5,29.95,North,0,255.3,0.0,87,0.00,OVC,,0.00,WeatherDisplay:10.37,2013-02-06 15:39:00,
2013-02-06 07:40:00,46.2,42.5,29.95,North,1,0.0,255.0,87,0.00,OVC,,0.00,WeatherDisplay:10.37,2013-02-06 15:40:00,
2013-02-06 07:42:00,46.2,42.5,29.95,North,0,255.3,0.0,87,0.00,OVC,,0.00,WeatherDisplay:10.37,2013-02-06 15:42:00,
2013-02-06 07:43:00,46.2,42.5,29.95,North,0,255.3,0.0,87,0.00,OVC,,0.00,WeatherDisplay:10.37,2013-02-06 15:43:00,
2013-02-06 07:45:00,46.2,42.5,29.95,North,0,255.3,0.0,87,0.00,OVC,,0.00,WeatherDisplay:10.37,2013-02-06 15:45:00,
2013-02-06 07:46:00,46.2,42.5,29.95,North,0,255.3,0.0,87,0.00,OVC,,0.00,WeatherDisplay:10.37,2013-02-06 15:46:00,
2013-02-06 07:47:00,46.2,42.5,29.95,North,0,255.3,0.0,87,0.00,OVC,,0.00,WeatherDisplay:10.37,2013-02-06 15:47:00,
2013-02-06 07:49:00,46.2,42.5,29.95,North,0,255.3,0.0,87,0.00,OVC,,0.00,WeatherDisplay:10.37,2013-02-06 15:49:00,
2013-02-06 07:51:00,46.2,42.5,29.96,North,0,255.3,0.0,87,0.00,OVC,,0.00,WeatherDisplay:10.37,2013-02-06 15:51:00,
2013-02-06 07:53:00,46.2,42.5,29.96,North,0,255.3,0.0,87,0.00,OVC,,0.00,WeatherDisplay:10.37,2013-02-06 15:53:00,
2013-02-06 07:54:00,46.2,42.5,29.96,North,0,255.3,0.0,87,0.00,OVC,,0.00,WeatherDisplay:10.37,2013-02-06 15:54:00,
2013-02-06 07:58:00,46.2,42.5,29.96,South,181,255.3,0.0,87,0.00,OVC,,0.00,WeatherDisplay:10.37,2013-02-06 15:58:00,
2013-02-06 07:59:00,46.5,41.3,29.97,South,181,255.3,255.3,82,0.00,OVC,,0.00,WeatherDisplay:10.37,2013-02-06 15:59:00,
2013-02-06 08:00:00,46.5,41.3,29.97,North,1,0.0,255.0,82,0.00,OVC,,0.00,WeatherDisplay:10.37,2013-02-06 16:00:00,
2013-02-06 08:04:00,46.5,41.0,29.97,South,181,0.0,0.0,81,0.00,OVC,,0.00,WeatherDisplay:10.37,2013-02-06 16:04:00,
2013-02-06 08:05:00,46.5,41.0,29.97,South,180,0.0,0.0,81,0.00,OVC,,0.00,WeatherDisplay:10.37,2013-02-06 16:05:00,
2013-02-06 08:09:00,46.5,41.0,29.97,South,181,0.0,0.0,81,0.00,OVC,,0.00,WeatherDisplay:10.37,2013-02-06 16:09:00,
2013-02-06 08:10:00,46.5,41.0,29.97,South,181,0.0,0.0,81,0.00,OVC,,0.00,WeatherDisplay:10.37,2013-02-06 16:10:00,
2013-02-06 08:11:00,46.5,41.0,29.97,South,181,0.0,0.0,81,0.00,OVC,,0.00,WeatherDisplay:10.37,2013-02-06 16:11:00,
2013-02-06 08:15:00,46.7,41.2,29.97,South,181,0.0,0.0,81,0.00,OVC,,0.00,WeatherDisplay:10.37,2013-02-06 16:15:00,
2013-02-06 08:17:00,46.7,41.2,29.97,East,79,2.3,2.3,81,0.00,OVC,,0.00,WeatherDisplay:10.37,2013-02-06 16:17:00,
2013-02-06 08:18:00,46.7,41.2,29.97,ENE,61,2.3,2.3,81,0.00,OVC,,0.00,WeatherDisplay:10.37,2013-02-06 16:18:00,
2013-02-06 08:20:00,46.8,41.3,29.97,ENE,63,0.0,0.1,81,0.00,OVC,,0.00,WeatherDisplay:10.37,2013-02-06 16:20:00,
2013-02-06 08:21:00,46.8,41.3,29.97,ENE,63,1.1,1.1,81,0.00,OVC,,0.00,WeatherDisplay:10.37,2013-02-06 16:21:00,
2013-02-06 08:22:00,46.8,41.3,29.97,ENE,63,2.3,2.3,81,0.00,OVC,,0.00,WeatherDisplay:10.37,2013-02-06 16:22:00,
2013-02-06 08:26:00,46.8,41.0,29.97,ENE,63,0.0,0.0,80,0.00,OVC,,0.00,WeatherDisplay:10.37,2013-02-06 16:26:00,
2013-02-06 08:27:00,47.0,41.1,29.98,ENE,63,2.3,2.3,80,0.00,OVC,,0.00,WeatherDisplay:10.37,2013-02-06 16:27:00,
2013-02-06 08:28:00,47.0,41.1,29.97,ENE,63,0.0,0.0,80,0.00,OVC,,0.00,WeatherDisplay:10.37,2013-02-06 16:28:00,
2013-02-06 08:29:00,47.0,41.1,29.98,ENE,63,0.0,0.0,80,0.00,OVC,,0.00,WeatherDisplay:10.37,2013-02-06 16:29:00,
2013-02-06 08:31:00,47.0,41.1,29.98,ESE,107,0.0,0.0,80,0.00,OVC,,0.00,WeatherDisplay:10.37,2013-02-06 16:31:00,
2013-02-06 08:32:00,47.1,41.6,29.98,ESE,107,0.0,0.1,81,0.00,OVC,,0.00,WeatherDisplay:10.37,2013-02-06 16:32:00,
2013-02-06 08:36:00,47.3,41.4,29.98,East,84,2.0,2.0,80,0.00,OVC,,0.00,WeatherDisplay:10.37,2013-02-06 16:36:00,
2013-02-06 08:37:00,47.1,41.2,29.98,ENE,69,3.5,3.5,80,0.00,OVC,,0.00,WeatherDisplay:10.37,2013-02-06 16:37:00,
2013-02-06 08:38:00,47.1,41.2,29.98,ENE,69,3.5,3.5,80,0.00,OVC,,0.00,WeatherDisplay:10.37,2013-02-06 16:38:00,
2013-02-06 08:41:00,47.3,41.4,29.98,ENE,70,2.3,2.3,80,0.00,OVC,,0.00,WeatherDisplay:10.37,2013-02-06 16:41:00,
2013-02-06 08:43:00,47.3,41.1,29.98,SSE,152,3.5,3.5,79,0.00,OVC,,0.00,WeatherDisplay:10.37,2013-02-06 16:43:00,
2013-02-06 08:44:00,47.3,41.1,29.98,SSE,152,3.5,3.5,79,0.00,OVC,,0.00,WeatherDisplay:10.37,2013-02-06 16:44:00,
2013-02-06 08:47:00,47.4,41.2,29.99,NE,44,2.3,2.3,79,0.00,OVC,,0.00,WeatherDisplay:10.37,2013-02-06 16:47:00,
2013-02-06 08:48:00,47.4,41.2,29.99,NE,44,0.0,0.0,79,0.00,OVC,,0.00,WeatherDisplay:10.37,2013-02-06 16:48:00,
2013-02-06 08:49:00,47.4,40.9,29.98,NE,45,1.1,0.0,78,0.00,OVC,,0.00,WeatherDisplay:10.37,2013-02-06 16:49:00,
2013-02-06 08:50:00,47.4,40.9,29.98,East,88,0.0,2.0,78,0.00,OVC,,0.00,WeatherDisplay:10.37,2013-02-06 16:50:00,
2013-02-06 08:54:00,47.7,41.2,29.98,ESE,113,0.0,0.0,78,0.00,OVC,,0.00,WeatherDisplay:10.37,2013-02-06 16:54:00,
2013-02-06 08:55:00,47.7,41.2,29.98,East,87,0.0,2.0,78,0.00,OVC,,0.00,WeatherDisplay:10.37,2013-02-06 16:55:00,
2013-02-06 08:59:00,48.2,41.7,29.98,East,101,1.1,1.1,78,0.00,OVC,,0.00,WeatherDisplay:10.37,2013-02-06 16:59:00,
2013-02-06 09:00:00,48.2,41.7,29.98,ESE,113,0.0,3.0,78,0.00,OVC,,0.00,WeatherDisplay:10.37,2013-02-06 17:00:00,
2013-02-06 09:02:00,48.3,41.4,29.98,SE,128,1.1,1.1,77,0.00,BKN,,0.00,WeatherDisplay:10.37,2013-02-06 17:02:00,
2013-02-06 09:05:00,48.5,41.3,29.98,ESE,117,0.0,1.0,76,0.00,BKN,,0.00,WeatherDisplay:10.37,2013-02-06 17:05:00,
2013-02-06 09:06:00,48.5,41.3,29.99,SE,128,0.0,0.0,76,0.00,BKN,,0.00,WeatherDisplay:10.37,2013-02-06 17:06:00,
2013-02-06 09:11:00,49.1,41.9,29.98,SE,125,0.0,0.0,76,0.00,BKN,,0.00,WeatherDisplay:10.37,2013-02-06 17:11:00,
2013-02-06 09:12:00,49.2,41.6,29.98,ESE,115,2.3,2.3,75,0.00,BKN,,0.00,WeatherDisplay:10.37,2013-02-06 17:12:00,
2013-02-06 09:16:00,49.4,41.5,29.98,ENE,61,5.0,5.0,74,0.00,BKN,,0.00,WeatherDisplay:10.37,2013-02-06 17:16:00,
2013-02-06 09:17:00,49.4,41.5,29.98,ESE,107,4.6,4.6,74,0.00,BKN,,0.00,WeatherDisplay:10.37,2013-02-06 17:17:00,
2013-02-06 09:22:00,49.8,41.8,29.98,SSE,151,3.5,3.5,74,0.00,BKN,,0.00,WeatherDisplay:10.37,2013-02-06 17:22:00,
2013-02-06 09:23:00,49.9,41.2,29.98,ESE,121,1.1,1.6,72,0.00,BKN,,0.00,WeatherDisplay:10.37,2013-02-06 17:23:00,
2013-02-06 09:27:00,50.2,40.8,29.98,ENE,65,1.1,1.5,70,0.00,BKN,,0.00,WeatherDisplay:10.37,2013-02-06 17:27:00,
2013-02-06 09:28:00,50.2,40.8,29.98,SE,124,3.5,3.5,70,0.00,BKN,,0.00,WeatherDisplay:10.37,2013-02-06 17:28:00,
2013-02-06 09:30:00,50.4,40.6,29.99,SE,143,4.6,4.6,69,0.00,BKN,,0.00,WeatherDisplay:10.37,2013-02-06 17:30:00,
2013-02-06 09:34:00,50.5,41.1,29.99,SSE,153,2.3,2.3,70,0.00,BKN,,0.00,WeatherDisplay:10.37,2013-02-06 17:34:00,
2013-02-06 09:35:00,50.5,40.7,29.99,SSE,153,3.5,3.5,69,0.00,BKN,,0.00,WeatherDisplay:10.37,2013-02-06 17:35:00,
2013-02-06 09:36:00,50.5,40.3,29.98,NNE,29,4.6,4.6,68,0.00,BKN,,0.00,WeatherDisplay:10.37,2013-02-06 17:36:00,
2013-02-06 09:38:00,50.5,40.7,29.99,East,90,3.5,3.5,69,0.00,BKN,,0.00,WeatherDisplay:10.37,2013-02-06 17:38:00,
2013-02-06 09:40:00,50.7,40.5,29.99,ESE,103,2.3,2.3,68,0.00,BKN,,0.00,WeatherDisplay:10.37,2013-02-06 17:40:00,
2013-02-06 09:41:00,50.8,41.0,29.99,ESE,105,3.5,3.5,69,0.00,BKN,,0.00,WeatherDisplay:10.37,2013-02-06 17:41:00,
2013-02-06 09:42:00,50.8,41.0,29.99,ESE,105,1.1,1.1,69,0.00,BKN,,0.00,WeatherDisplay:10.37,2013-02-06 17:42:00,
2013-02-06 09:45:00,51.1,40.9,29.99,ESE,102,2.3,2.3,68,0.00,BKN,,0.00,WeatherDisplay:10.37,2013-02-06 17:45:00,
2013-02-06 09:47:00,51.1,40.9,29.99,ENE,75,3.5,3.5,68,0.00,BKN,,0.00,WeatherDisplay:10.37,2013-02-06 17:47:00,
2013-02-06 09:50:00,51.3,40.7,29.99,ESE,114,1.0,5.0,67,0.00,BKN,,0.00,WeatherDisplay:10.37,2013-02-06 17:50:00,
2013-02-06 09:51:00,51.6,41.4,29.99,SE,131,3.5,3.5,68,0.00,BKN,,0.00,WeatherDisplay:10.37,2013-02-06 17:51:00,
2013-02-06 09:53:00,51.7,40.7,29.98,South,175,2.3,2.3,66,0.00,BKN,,0.00,WeatherDisplay:10.37,2013-02-06 17:53:00,
2013-02-06 09:56:00,52.2,40.8,29.98,ENE,62,2.3,2.3,65,0.00,BKN,,0.00,WeatherDisplay:10.37,2013-02-06 17:56:00,
2013-02-06 09:57:00,52.2,40.8,29.98,ENE,62,1.1,0.0,65,0.00,BKN,,0.00,WeatherDisplay:10.37,2013-02-06 17:57:00,
2013-02-06 09:59:00,52.3,40.5,29.99,East,79,3.5,3.5,64,0.00,BKN,,0.00,WeatherDisplay:10.37,2013-02-06 17:59:00,
2013-02-06 10:02:00,52.5,40.3,29.99,SE,134,4.6,4.6,63,0.00,BKN,,0.00,WeatherDisplay:10.37,2013-02-06 18:02:00,
2013-02-06 10:03:00,52.5,40.3,29.99,SE,134,3.5,3.5,63,0.00,BKN,,0.00,WeatherDisplay:10.37,2013-02-06 18:03:00,
2013-02-06 10:05:00,52.3,40.1,29.99,ENE,61,3.5,3.5,63,0.00,BKN,,0.00,WeatherDisplay:10.37,2013-02-06 18:05:00,
2013-02-06 10:07:00,52.3,40.1,29.99,ENE,62,1.1,1.1,63,0.00,BKN,,0.00,WeatherDisplay:10.37,2013-02-06 18:07:00,
2013-02-06 10:08:00,52.3,40.1,29.99,South,183,3.5,3.5,63,0.00,BKN,,0.00,WeatherDisplay:10.37,2013-02-06 18:08:00,
2013-02-06 10:10:00,52.5,40.7,29.99,South,183,1.1,0.0,64,0.00,BKN,,0.00,WeatherDisplay:10.37,2013-02-06 18:10:00,
2013-02-06 10:12:00,52.6,40.4,29.99,ENE,61,2.3,2.3,63,0.00,BKN,,0.00,WeatherDisplay:10.37,2013-02-06 18:12:00,
2013-02-06 10:14:00,52.8,40.5,29.99,ENE,62,1.1,1.1,63,0.00,BKN,,0.00,WeatherDisplay:10.37,2013-02-06 18:14:00,
2013-02-06 10:16:00,52.9,40.6,29.99,ENE,62,2.3,2.3,63,0.00,BKN,,0.00,WeatherDisplay:10.37,2013-02-06 18:16:00,
2013-02-06 10:18:00,52.9,40.2,29.99,SE,124,3.5,3.5,62,0.00,BKN,,0.00,WeatherDisplay:10.37,2013-02-06 18:18:00,
2013-02-06 10:20:00,52.9,40.2,29.99,ENE,77,0.0,3.0,62,0.00,BKN,,0.00,WeatherDisplay:10.37,2013-02-06 18:20:00,
2013-02-06 10:21:00,52.9,40.2,29.99,ENE,78,0.0,0.0,62,0.00,BKN,,0.00,WeatherDisplay:10.37,2013-02-06 18:21:00,
2013-02-06 10:22:00,53.1,40.4,29.99,ENE,78,0.0,0.0,62,0.00,BKN,,0.00,WeatherDisplay:10.37,2013-02-06 18:22:00,
2013-02-06 10:25:00,53.2,40.5,29.99,East,79,0.0,0.0,62,0.00,BKN,,0.00,WeatherDisplay:10.37,2013-02-06 18:25:00,
2013-02-06 10:26:00,53.2,40.5,29.99,East,79,0.0,0.0,62,0.00,BKN,,0.00,WeatherDisplay:10.37,2013-02-06 18:26:00,
2013-02-06 10:29:00,53.3,40.2,29.98,West,266,1.1,1.1,61,0.00,BKN,,0.00,WeatherDisplay:10.37,2013-02-06 18:29:00,
2013-02-06 10:30:00,53.3,40.2,29.98,West,266,0.0,0.0,61,0.00,BKN,,0.00,WeatherDisplay:10.37,2013-02-06 18:30:00,
2013-02-06 10:32:00,53.3,40.6,29.98,West,266,0.0,0.0,62,0.00,BKN,,0.00,WeatherDisplay:10.37,2013-02-06 18:32:00,
2013-02-06 10:34:00,53.3,40.2,29.98,West,266,0.0,0.0,61,0.00,BKN,,0.00,WeatherDisplay:10.37,2013-02-06 18:34:00,
2013-02-06 10:35:00,53.3,40.2,29.98,West,266,0.0,0.0,61,0.00,BKN,,0.00,WeatherDisplay:10.37,2013-02-06 18:35:00,
2013-02-06 10:36:00,53.3,40.6,29.98,West,266,0.0,0.0,62,0.00,BKN,,0.00,WeatherDisplay:10.37,2013-02-06 18:36:00,
2013-02-06 10:37:00,53.3,40.6,29.98,West,266,0.0,0.0,62,0.00,BKN,,0.00,WeatherDisplay:10.37,2013-02-06 18:37:00,
2013-02-06 10:40:00,53.5,40.4,29.98,West,266,0.0,0.0,61,0.00,BKN,,0.00,WeatherDisplay:10.37,2013-02-06 18:40:00,
2013-02-06 10:41:00,53.5,40.8,29.98,West,266,0.0,0.0,62,0.00,BKN,,0.00,WeatherDisplay:10.37,2013-02-06 18:41:00,
2013-02-06 10:43:00,53.8,40.7,29.98,West,266,2.0,2.0,61,0.00,BKN,,0.00,WeatherDisplay:10.37,2013-02-06 18:43:00,
2013-02-06 10:47:00,54.1,40.9,29.98,WNW,290,2.3,2.3,61,0.00,BKN,,0.00,WeatherDisplay:10.37,2013-02-06 18:47:00,
2013-02-06 10:48:00,54.1,40.9,29.98,WNW,290,2.3,2.3,61,0.00,BKN,,0.00,WeatherDisplay:10.37,2013-02-06 18:48:00,
2013-02-06 10:49:00,54.1,40.5,29.98,WNW,290,0.0,0.0,60,0.00,BKN,,0.00,WeatherDisplay:10.37,2013-02-06 18:49:00,
2013-02-06 10:53:00,54.4,40.4,29.98,WNW,290,1.1,1.1,59,0.00,BKN,,0.00,WeatherDisplay:10.37,2013-02-06 18:53:00,
2013-02-06 10:54:00,54.4,40.4,29.98,WNW,290,1.1,1.1,59,0.00,BKN,,0.00,WeatherDisplay:10.37,2013-02-06 18:54:00,
2013-02-06 10:58:00,54.5,40.5,29.97,WSW,240,0.0,0.0,59,0.00,BKN,,0.00,WeatherDisplay:10.37,2013-02-06 18:58:00,
2013-02-06 10:59:00,54.5,40.5,29.97,WSW,240,0.0,0.0,59,0.00,BKN,,0.00,WeatherDisplay:10.37,2013-02-06 18:59:00,
2013-02-06 11:02:00,54.7,40.6,29.97,West,281,0.0,0.3,59,0.00,BKN,,0.00,WeatherDisplay:10.37,2013-02-06 19:02:00,
2013-02-06 11:03:00,54.8,40.7,29.97,WSW,257,2.3,2.3,59,0.00,BKN,,0.00,WeatherDisplay:10.37,2013-02-06 19:03:00,
2013-02-06 11:04:00,54.8,40.7,29.97,WSW,257,2.3,2.3,59,0.00,BKN,,0.00,WeatherDisplay:10.37,2013-02-06 19:04:00,
2013-02-06 11:08:00,55.1,40.6,29.97,WSW,257,0.0,0.0,58,0.00,BKN,,0.00,WeatherDisplay:10.37,2013-02-06 19:08:00,
2013-02-06 11:10:00,55.4,40.9,29.97,WSW,257,0.0,0.0,58,0.00,BKN,,0.00,WeatherDisplay:10.37,2013-02-06 19:10:00,
2013-02-06 11:12:00,55.6,40.6,29.97,WSW,244,2.3,2.3,57,0.00,BKN,,0.00,WeatherDisplay:10.37,2013-02-06 19:12:00,
2013-02-06 11:15:00,55.7,40.2,29.97,WSW,244,0.0,0.0,56,0.00,BKN,,0.00,WeatherDisplay:10.37,2013-02-06 19:15:00,
2013-02-06 11:17:00,55.7,40.2,29.97,NW,309,1.0,0.0,56,0.00,BKN,,0.00,WeatherDisplay:10.37,2013-02-06 19:17:00,
2013-02-06 11:20:00,55.8,39.8,29.97,West,274,0.0,1.0,55,0.00,BKN,,0.00,WeatherDisplay:10.37,2013-02-06 19:20:00,
2013-02-06 11:21:00,55.9,40.0,29.97,North,358,3.5,3.5,55,0.00,BKN,,0.00,WeatherDisplay:10.37,2013-02-06 19:21:00,
2013-02-06 11:22:00,56.0,40.1,29.97,North,358,1.1,0.0,55,0.00,BKN,,0.00,WeatherDisplay:10.37,2013-02-06 19:22:00,
2013-02-06 11:23:00,56.0,40.1,29.97,NNW,333,1.1,1.1,55,0.00,BKN,,0.00,WeatherDisplay:10.37,2013-02-06 19:23:00,
2013-02-06 11:26:00,56.0,40.1,29.97,WSW,256,3.5,3.5,55,0.00,BKN,,0.00,WeatherDisplay:10.37,2013-02-06 19:26:00,
2013-02-06 11:27:00,56.0,40.1,29.97,WSW,256,3.5,3.5,55,0.00,BKN,,0.00,WeatherDisplay:10.37,2013-02-06 19:27:00,
2013-02-06 11:29:00,56.2,40.2,29.97,WSW,256,0.0,0.0,55,0.00,BKN,,0.00,WeatherDisplay:10.37,2013-02-06 19:29:00,
2013-02-06 11:32:00,55.7,39.3,29.97,North,0,1.1,1.1,54,0.00,BKN,,0.00,WeatherDisplay:10.37,2013-02-06 19:32:00,
2013-02-06 11:33:00,55.6,39.2,29.96,North,0,1.1,0.0,54,0.00,BKN,,0.00,WeatherDisplay:10.37,2013-02-06 19:33:00,
2013-02-06 11:35:00,55.4,39.5,29.96,North,0,0.0,0.0,55,0.00,BKN,,0.00,WeatherDisplay:10.37,2013-02-06 19:35:00,
2013-02-06 11:37:00,55.3,39.9,29.96,NNW,333,1.1,0.0,56,0.00,BKN,,0.00,WeatherDisplay:10.37,2013-02-06 19:37:00,
2013-02-06 11:40:00,55.0,39.6,29.96,North,350,0.0,1.0,56,0.00,BKN,,0.00,WeatherDisplay:10.37,2013-02-06 19:40:00,
2013-02-06 11:42:00,54.8,39.4,29.96,NNE,30,1.1,0.0,56,0.00,BKN,,0.00,WeatherDisplay:10.37,2013-02-06 19:42:00,
2013-02-06 11:45:00,55.0,40.0,29.96,NNE,32,3.5,3.5,57,0.00,BKN,,0.00,WeatherDisplay:10.37,2013-02-06 19:45:00,
2013-02-06 11:47:00,55.3,40.3,29.96,WNW,283,4.6,4.6,57,0.00,BKN,,0.00,WeatherDisplay:10.37,2013-02-06 19:47:00,
2013-02-06 11:48:00,55.6,40.1,29.96,WNW,287,4.6,4.6,56,0.00,BKN,,0.00,WeatherDisplay:10.37,2013-02-06 19:48:00,
2013-02-06 11:52:00,56.0,40.1,29.96,West,281,4.6,4.6,55,0.00,BKN,,0.00,WeatherDisplay:10.37,2013-02-06 19:52:00,
2013-02-06 11:54:00,56.2,40.2,29.96,West,281,2.3,2.3,55,0.00,BKN,,0.00,WeatherDisplay:10.37,2013-02-06 19:54:00,
2013-02-06 11:55:00,56.3,40.8,29.96,West,281,1.1,1.1,56,0.00,BKN,,0.00,WeatherDisplay:10.37,2013-02-06 19:55:00,
2013-02-06 11:56:00,56.3,40.8,29.96,West,281,2.3,2.3,56,0.00,BKN,,0.00,WeatherDisplay:10.37,2013-02-06 19:56:00,
2013-02-06 11:57:00,56.5,40.0,29.95,NW,304,1.1,1.1,54,0.00,BKN,,0.00,WeatherDisplay:10.37,2013-02-06 19:57:00,
2013-02-06 12:00:00,56.5,40.5,29.95,WNW,283,1.0,3.0,55,0.00,BKN,,0.00,WeatherDisplay:10.37,2013-02-06 20:00:00,
2013-02-06 12:01:00,56.6,40.1,29.95,WNW,283,1.1,1.1,54,0.00,SCT,,0.00,WeatherDisplay:10.37,2013-02-06 20:01:00,
2013-02-06 12:02:00,56.6,40.1,29.95,WNW,283,1.1,1.1,54,0.00,SCT,,0.00,WeatherDisplay:10.37,2013-02-06 20:02:00,
2013-02-06 12:05:00,56.5,40.5,29.95,North,358,4.0,4.0,55,0.00,SCT,,0.00,WeatherDisplay:10.37,2013-02-06 20:05:00,
2013-02-06 12:07:00,56.3,39.9,29.96,North,1,3.5,0.0,54,0.00,SCT,,0.00,WeatherDisplay:10.37,2013-02-06 20:07:00,
2013-02-06 12:11:00,56.6,40.6,29.95,NNW,343,0.0,0.0,55,0.00,SCT,,0.00,WeatherDisplay:10.37,2013-02-06 20:11:00,
2013-02-06 12:12:00,56.6,40.6,29.95,NNW,343,0.0,0.0,55,0.00,SCT,,0.00,WeatherDisplay:10.37,2013-02-06 20:12:00,
2013-02-06 12:13:00,56.7,40.2,29.95,SW,221,2.0,2.0,54,0.00,SCT,,0.00,WeatherDisplay:10.37,2013-02-06 20:13:00,
2013-02-06 12:16:00,57.2,40.2,29.95,WNW,283,2.3,2.3,53,0.00,SCT,,0.00,WeatherDisplay:10.37,2013-02-06 20:16:00,
2013-02-06 12:17:00,57.2,39.7,29.95,WNW,283,3.5,3.5,52,0.00,SCT,,0.00,WeatherDisplay:10.37,2013-02-06 20:17:00,
2013-02-06 12:19:00,57.2,39.7,29.94,SSE,150,1.1,1.1,52,0.00,SCT,,0.00,WeatherDisplay:10.37,2013-02-06 20:19:00,
2013-02-06 12:20:00,57.2,39.7,29.94,North,358,2.0,0.0,52,0.00,SCT,,0.00,WeatherDisplay:10.37,2013-02-06 20:20:00,
2013-02-06 12:23:00,57.0,39.5,29.94,North,358,1.1,0.0,52,0.00,SCT,,0.00,WeatherDisplay:10.37,2013-02-06 20:23:00,
2013-02-06 12:25:00,57.0,39.5,29.94,North,352,0.0,2.0,52,0.00,SCT,,0.00,WeatherDisplay:10.37,2013-02-06 20:25:00,
2013-02-06 12:26:00,57.0,40.0,29.94,NW,315,1.1,1.1,53,0.00,SCT,,0.00,WeatherDisplay:10.37,2013-02-06 20:26:00,
2013-02-06 12:28:00,57.3,39.8,29.94,West,277,3.0,3.0,52,0.00,SCT,,0.00,WeatherDisplay:10.37,2013-02-06 20:28:00,
2013-02-06 12:31:00,57.8,39.8,29.94,West,272,4.6,4.6,51,0.00,SCT,,0.00,WeatherDisplay:10.37,2013-02-06 20:31:00,
2013-02-06 12:33:00,58.1,40.1,29.94,SSW,193,3.5,3.5,51,0.00,SCT,,0.00,WeatherDisplay:10.37,2013-02-06 20:33:00,
2013-02-06 12:35:00,58.4,40.8,29.94,West,269,3.5,3.5,52,0.00,SCT,,0.00,WeatherDisplay:10.37,2013-02-06 20:35:00,
2013-02-06 12:36:00,58.4,40.3,29.94,West,269,5.8,5.8,51,0.00,SCT,,0.00,WeatherDisplay:10.37,2013-02-06 20:36:00,
2013-02-06 12:37:00,58.6,40.5,29.94,West,269,3.5,3.5,51,0.00,SCT,,0.00,WeatherDisplay:10.37,2013-02-06 20:37:00,
2013-02-06 12:41:00,58.7,40.1,29.94,West,273,3.5,3.5,50,0.00,SCT,,0.00,WeatherDisplay:10.37,2013-02-06 20:41:00,
2013-02-06 12:42:00,58.7,40.1,29.94,West,273,3.5,3.5,50,0.00,SCT,,0.00,WeatherDisplay:10.37,2013-02-06 20:42:00,
2013-02-06 12:44:00,58.9,40.3,29.94,SSW,212,3.5,3.5,50,0.00,SCT,,0.00,WeatherDisplay:10.37,2013-02-06 20:44:00,
2013-02-06 12:47:00,59.2,40.0,29.94,WNW,286,4.6,4.6,49,0.00,SCT,,0.00,WeatherDisplay:10.37,2013-02-06 20:47:00,
2013-02-06 12:49:00,59.2,40.0,29.94,NW,320,3.5,3.5,49,0.00,SCT,,0.00,WeatherDisplay:10.37,2013-02-06 20:49:00,
2013-02-06 12:50:00,59.2,40.0,29.94,West,281,0.0,5.0,49,0.00,SCT,,0.00,WeatherDisplay:10.37,2013-02-06 20:50:00,
2013-02-06 12:52:00,59.3,40.1,29.94,North,356,3.5,3.5,49,0.00,SCT,,0.00,WeatherDisplay:10.37,2013-02-06 20:52:00,
2013-02-06 12:54:00,59.0,39.9,29.94,NNE,12,2.3,2.3,49,0.00,SCT,,0.00,WeatherDisplay:10.37,2013-02-06 20:54:00,
2013-02-06 12:55:00,59.0,39.9,29.94,NNE,12,3.5,3.5,49,0.00,SCT,,0.00,WeatherDisplay:10.37,2013-02-06 20:55:00,
2013-02-06 12:58:00,58.7,40.1,29.93,NE,53,3.5,3.5,50,0.00,SCT,,0.00,WeatherDisplay:10.37,2013-02-06 20:58:00,
2013-02-06 13:00:00,58.7,41.1,29.93,NNE,12,0.0,5.0,52,0.00,SCT,,0.00,WeatherDisplay:10.37,2013-02-06 21:00:00,
2013-02-06 13:01:00,58.9,40.8,29.93,North,0,3.5,3.5,51,0.00,CLR,,0.00,WeatherDisplay:10.37,2013-02-06 21:01:00,
2013-02-06 13:03:00,58.9,39.8,29.93,NE,40,3.5,3.5,49,0.00,CLR,,0.00,WeatherDisplay:10.37,2013-02-06 21:03:00,
2013-02-06 13:05:00,58.9,39.8,29.93,NNE,32,0.0,4.0,49,0.00,CLR,,0.00,WeatherDisplay:10.37,2013-02-06 21:05:00,
2013-02-06 13:06:00,59.0,40.4,29.93,NE,40,1.1,1.1,50,0.00,CLR,,0.00,WeatherDisplay:10.37,2013-02-06 21:06:00,
2013-02-06 13:08:00,59.2,40.6,29.93,North,0,2.3,2.3,50,0.00,CLR,,0.00,WeatherDisplay:10.37,2013-02-06 21:08:00,
2013-02-06 13:11:00,59.0,40.9,29.93,North,350,2.3,2.3,51,0.00,CLR,,0.00,WeatherDisplay:10.37,2013-02-06 21:11:00,
2013-02-06 13:14:00,59.0,40.4,29.93,West,267,1.1,1.1,50,0.00,CLR,,0.00,WeatherDisplay:10.37,2013-02-06 21:14:00,
2013-02-06 13:17:00,59.0,40.4,29.93,West,267,0.0,0.0,50,0.00,CLR,,0.00,WeatherDisplay:10.37,2013-02-06 21:17:00,
2013-02-06 13:19:00,59.2,40.0,29.92,WNW,285,3.5,3.5,49,0.00,CLR,,0.00,WeatherDisplay:10.37,2013-02-06 21:19:00,
2013-02-06 13:20:00,59.2,40.0,29.92,North,356,3.5,3.5,49,0.00,CLR,,0.00,WeatherDisplay:10.37,2013-02-06 21:20:00,
2013-02-06 13:23:00,59.0,40.9,29.92,North,6,3.5,3.5,51,0.00,CLR,,0.00,WeatherDisplay:10.37,2013-02-06 21:23:00,
2013-02-06 13:24:00,59.0,40.9,29.92,North,0,1.1,0.0,51,0.00,CLR,,0.00,WeatherDisplay:10.37,2013-02-06 21:24:00,
2013-02-06 13:25:00,59.0,40.4,29.92,NE,44,1.1,1.1,50,0.00,CLR,,0.00,WeatherDisplay:10.37,2013-02-06 21:25:00,
2013-02-06 13:27:00,59.0,40.4,29.92,ENE,71,3.5,3.5,50,0.00,CLR,,0.00,WeatherDisplay:10.37,2013-02-06 21:27:00,
2013-02-06 13:30:00,59.2,40.6,29.92,North,0,2.3,2.3,50,0.00,CLR,,0.00,WeatherDisplay:10.37,2013-02-06 21:30:00,
2013-02-06 13:31:00,59.2,40.6,29.92,North,0,0.0,0.0,50,0.00,CLR,,0.00,WeatherDisplay:10.37,2013-02-06 21:31:00,
2013-02-06 13:32:00,59.2,40.6,29.92,North,0,0.0,0.0,50,0.00,CLR,,0.00,WeatherDisplay:10.37,2013-02-06 21:32:00,
2013-02-06 13:35:00,59.2,40.1,29.92,NNE,21,0.0,1.0,49,0.00,CLR,,0.00,WeatherDisplay:10.37,2013-02-06 21:35:00,
2013-02-06 13:36:00,59.3,40.1,29.92,North,0,1.1,0.0,49,0.00,CLR,,0.00,WeatherDisplay:10.37,2013-02-06 21:36:00,
2013-02-06 13:37:00,59.3,39.6,29.92,North,0,0.0,0.0,48,0.00,CLR,,0.00,WeatherDisplay:10.37,2013-02-06 21:37:00,
2013-02-06 13:42:00,59.6,39.9,29.92,NE,36,2.3,2.3,48,0.00,CLR,,0.00,WeatherDisplay:10.37,2013-02-06 21:42:00,
2013-02-06 13:43:00,59.6,39.9,29.92,NE,36,2.3,2.3,48,0.00,CLR,,0.00,WeatherDisplay:10.37,2013-02-06 21:43:00,
2013-02-06 13:44:00,59.6,39.9,29.92,NNE,27,2.3,2.3,48,0.00,CLR,,0.00,WeatherDisplay:10.37,2013-02-06 21:44:00,
2013-02-06 13:49:00,59.8,40.1,29.92,West,269,1.1,0.0,48,0.00,CLR,,0.00,WeatherDisplay:10.37,2013-02-06 21:49:00,
2013-02-06 13:50:00,59.8,40.1,29.92,NNW,337,0.0,3.0,48,0.00,CLR,,0.00,WeatherDisplay:10.37,2013-02-06 21:50:00,
2013-02-06 13:54:00,60.4,40.1,29.92,West,272,1.1,1.1,47,0.00,CLR,,0.00,WeatherDisplay:10.37,2013-02-06 21:54:00,
2013-02-06 13:55:00,60.4,39.5,29.92,West,272,1.1,0.0,46,0.00,CLR,,0.00,WeatherDisplay:10.37,2013-02-06 21:55:00,
2013-02-06 13:56:00,60.4,40.1,29.92,West,272,1.1,0.0,47,0.00,CLR,,0.00,WeatherDisplay:10.37,2013-02-06 21:56:00,
2013-02-06 14:00:00,60.5,40.2,29.92,West,276,1.1,1.1,47,0.00,CLR,,0.00,WeatherDisplay:10.37,2013-02-06 22:00:00,
2013-02-06 14:02:00,60.5,39.6,29.92,North,357,2.3,2.3,46,0.00,CLR,,0.00,WeatherDisplay:10.37,2013-02-06 22:02:00,
2013-02-06 14:06:00,60.7,40.3,29.92,NNW,336,1.1,0.0,47,0.00,CLR,,0.00,WeatherDisplay:10.37,2013-02-06 22:06:00,
2013-02-06 14:07:00,60.7,40.3,29.92,NNW,337,0.0,0.0,47,0.00,CLR,,0.00,WeatherDisplay:10.37,2013-02-06 22:07:00,
2013-02-06 14:11:00,61.0,40.1,29.92,NNW,339,1.1,1.1,46,0.00,CLR,,0.00,WeatherDisplay:10.37,2013-02-06 22:11:00,
2013-02-06 14:12:00,60.9,39.4,29.92,NNW,339,2.3,2.3,45,0.00,CLR,,0.00,WeatherDisplay:10.37,2013-02-06 22:12:00,
2013-02-06 14:13:00,60.9,39.4,29.92,NNW,339,1.1,0.0,45,0.00,CLR,,0.00,WeatherDisplay:10.37,2013-02-06 22:13:00,
2013-02-06 14:16:00,60.9,40.0,29.92,ENE,68,1.1,1.1,46,0.00,CLR,,0.00,WeatherDisplay:10.37,2013-02-06 22:16:00,
2013-02-06 14:17:00,60.7,39.8,29.92,ENE,68,2.3,2.3,46,0.00,CLR,,0.00,WeatherDisplay:10.37,2013-02-06 22:17:00,
2013-02-06 14:21:00,61.0,40.6,29.92,ENE,68,0.0,0.0,47,0.00,CLR,,0.00,WeatherDisplay:10.37,2013-02-06 22:21:00,
2013-02-06 14:22:00,61.3,40.3,29.91,WSW,242,2.0,2.0,46,0.00,CLR,,0.00,WeatherDisplay:10.37,2013-02-06 22:22:00,
2013-02-06 14:25:00,61.6,40.0,29.91,NE,44,1.0,3.0,45,0.00,CLR,,0.00,WeatherDisplay:10.37,2013-02-06 22:25:00,
2013-02-06 14:27:00,62.1,40.5,29.91,WSW,252,3.5,3.5,45,0.00,CLR,,0.00,WeatherDisplay:10.37,2013-02-06 22:27:00,
2013-02-06 14:30:00,62.2,40.6,29.91,West,259,0.0,4.0,45,0.00,CLR,,0.00,WeatherDisplay:10.37,2013-02-06 22:30:00,
2013-02-06 14:32:00,62.3,41.2,29.91,WNW,297,1.1,1.1,46,0.00,CLR,,0.00,WeatherDisplay:10.37,2013-02-06 22:32:00,
2013-02-06 14:33:00,62.4,41.3,29.91,WNW,297,1.1,1.1,46,0.00,CLR,,0.00,WeatherDisplay:10.37,2013-02-06 22:33:00,
2013-02-06 14:36:00,62.6,40.4,29.91,WNW,288,3.5,3.5,44,0.00,CLR,,0.00,WeatherDisplay:10.37,2013-02-06 22:36:00,
2013-02-06 14:38:00,62.7,40.5,29.91,South,176,4.6,4.6,44,0.00,CLR,,0.00,WeatherDisplay:10.37,2013-02-06 22:38:00,
2013-02-06 14:40:00,62.6,40.4,29.91,SSW,193,5.8,5.8,44,0.00,CLR,,0.00,WeatherDisplay:10.37,2013-02-06 22:40:00,
2013-02-06 14:42:00,62.3,40.7,29.91,SSE,158,3.0,3.0,45,0.00,CLR,,0.00,WeatherDisplay:10.37,2013-02-06 22:42:00,
2013-02-06 14:43:00,62.1,41.1,29.91,SSE,167,3.5,3.5,46,0.00,CLR,,0.00,WeatherDisplay:10.37,2013-02-06 22:43:00,
2013-02-06 14:46:00,61.8,40.2,29.91,South,174,4.6,4.6,45,0.00,CLR,,0.00,WeatherDisplay:10.37,2013-02-06 22:46:00,
2013-02-06 14:47:00,61.6,40.0,29.91,SSE,160,4.6,4.6,45,0.00,CLR,,0.00,WeatherDisplay:10.37,2013-02-06 22:47:00,
2013-02-06 14:52:00,61.8,40.8,29.91,WNW,293,3.0,3.0,46,0.00,CLR,,0.00,WeatherDisplay:10.37,2013-02-06 22:52:00,
2013-02-06 14:53:00,61.8,40.2,29.91,West,281,4.0,4.0,45,0.00,CLR,,0.00,WeatherDisplay:10.37,2013-02-06 22:53:00,
2013-02-06 14:54:00,61.8,40.2,29.91,West,274,5.8,5.8,45,0.00,CLR,,0.00,WeatherDisplay:10.37,2013-02-06 22:54:00,
2013-02-06 14:58:00,62.0,40.4,29.91,West,271,3.5,3.5,45,0.00,CLR,,0.00,WeatherDisplay:10.37,2013-02-06 22:58:00,
2013-02-06 14:59:00,62.0,40.4,29.91,West,271,3.5,3.5,45,0.00,CLR,,0.00,WeatherDisplay:10.37,2013-02-06 22:59:00,
2013-02-06 15:00:00,62.0,40.4,29.91,SW,227,3.5,3.5,45,0.00,CLR,,0.00,WeatherDisplay:10.37,2013-02-06 23:00:00,
2013-02-06 15:03:00,62.3,40.7,29.91,NW,304,3.5,3.5,45,0.00,CLR,,0.00,WeatherDisplay:10.37,2013-02-06 23:03:00,
2013-02-06 15:05:00,62.3,39.5,29.92,NW,304,1.1,1.1,43,0.00,CLR,,0.00,WeatherDisplay:10.37,2013-02-06 23:05:00,
2013-02-06 15:09:00,62.3,39.5,29.92,West,266,3.5,3.5,43,0.00,CLR,,0.00,WeatherDisplay:10.37,2013-02-06 23:09:00,
2013-02-06 15:10:00,62.3,40.1,29.92,West,281,0.0,0.1,44,0.00,CLR,,0.00,WeatherDisplay:10.37,2013-02-06 23:10:00,
2013-02-06 15:11:00,62.3,40.1,29.92,West,281,1.1,1.1,44,0.00,CLR,,0.00,WeatherDisplay:10.37,2013-02-06 23:11:00,
2013-02-06 15:12:00,62.3,40.1,29.92,West,275,3.5,3.5,44,0.00,CLR,,0.00,WeatherDisplay:10.37,2013-02-06 23:12:00,
2013-02-06 15:15:00,62.1,39.9,29.92,West,276,2.3,2.3,44,0.00,CLR,,0.00,WeatherDisplay:10.37,2013-02-06 23:15:00,
2013-02-06 15:18:00,62.3,40.1,29.92,WNW,288,4.6,0.0,44,0.00,CLR,,0.00,WeatherDisplay:10.37,2013-02-06 23:18:00,
2013-02-06 15:21:00,62.1,39.9,29.92,West,273,4.6,4.6,44,0.00,CLR,,0.00,WeatherDisplay:10.37,2013-02-06 23:21:00,
2013-02-06 15:23:00,62.1,39.9,29.92,WNW,283,3.5,3.5,44,0.00,CLR,,0.00,WeatherDisplay:10.37,2013-02-06 23:23:00,
2013-02-06 15:24:00,62.1,39.9,29.92,WNW,283,1.1,1.1,44,0.00,CLR,,0.00,WeatherDisplay:10.37,2013-02-06 23:24:00,
2013-02-06 15:26:00,61.8,39.6,29.92,WNW,283,0.0,0.0,44,0.00,CLR,,0.00,WeatherDisplay:10.37,2013-02-06 23:26:00,
2013-02-06 15:29:00,61.6,40.0,29.92,WNW,282,3.5,3.5,45,0.00,CLR,,0.00,WeatherDisplay:10.37,2013-02-06 23:29:00,
2013-02-06 15:31:00,61.6,39.5,29.92,West,272,3.5,3.5,44,0.00,CLR,,0.00,WeatherDisplay:10.37,2013-02-06 23:31:00,
2013-02-06 15:34:00,61.6,39.5,29.92,West,272,0.0,0.0,44,0.00,CLR,,0.00,WeatherDisplay:10.37,2013-02-06 23:34:00,
2013-02-06 15:35:00,61.6,39.5,29.92,West,274,0.0,4.0,44,0.00,CLR,,0.00,WeatherDisplay:10.37,2013-02-06 23:35:00,
2013-02-06 15:40:00,61.5,40.0,29.92,West,280,1.0,5.0,45,0.00,CLR,,0.00,WeatherDisplay:10.37,2013-02-06 23:40:00,
2013-02-06 15:41:00,61.6,40.6,29.92,West,276,6.9,6.9,46,0.00,CLR,,0.00,WeatherDisplay:10.37,2013-02-06 23:41:00,
2013-02-06 15:46:00,61.6,40.6,29.92,WNW,283,3.5,3.5,46,0.00,CLR,,0.00,WeatherDisplay:10.37,2013-02-06 23:46:00,
2013-02-06 15:48:00,61.5,40.5,29.92,WNW,283,3.5,3.5,46,0.00,CLR,,0.00,WeatherDisplay:10.37,2013-02-06 23:48:00,
2013-02-06 15:49:00,61.5,40.5,29.92,WNW,283,3.5,3.5,46,0.00,CLR,,0.00,WeatherDisplay:10.37,2013-02-06 23:49:00,
2013-02-06 15:52:00,61.5,40.5,29.92,WNW,285,3.5,3.5,46,0.00,CLR,,0.00,WeatherDisplay:10.37,2013-02-06 23:52:00,
2013-02-06 15:53:00,61.5,41.1,29.92,West,265,3.5,3.5,47,0.00,CLR,,0.00,WeatherDisplay:10.37,2013-02-06 23:53:00,
2013-02-06 15:54:00,61.5,41.1,29.92,WNW,288,5.0,5.0,47,0.00,CLR,,0.00,WeatherDisplay:10.37,2013-02-06 23:54:00,
2013-02-06 15:58:00,61.2,40.8,29.92,West,279,3.5,3.5,47,0.00,CLR,,0.00,WeatherDisplay:10.37,2013-02-06 23:58:00,
2013-02-06 15:59:00,61.2,40.8,29.92,West,279,2.3,2.3,47,0.00,CLR,,0.00,WeatherDisplay:10.37,2013-02-06 23:59:00,
2013-02-06 16:00:00,61.2,40.8,29.92,West,279,1.1,1.1,47,0.00,CLR,,0.00,WeatherDisplay:10.37,2013-02-07 00:00:00,
2013-02-06 16:04:00,61.0,40.6,29.92,WNW,283,0.0,0.0,47,0.00,CLR,,0.00,WeatherDisplay:10.37,2013-02-07 00:04:00,
2013-02-06 16:05:00,61.1,40.7,29.92,West,280,0.0,1.0,47,0.00,CLR,,0.00,WeatherDisplay:10.37,2013-02-07 00:05:00,
2013-02-06 16:07:00,61.0,40.6,29.92,WNW,283,0.0,0.0,47,0.00,CLR,,0.00,WeatherDisplay:10.37,2013-02-07 00:07:00,
2013-02-06 16:09:00,61.2,40.8,29.92,WNW,283,0.0,0.0,47,0.00,CLR,,0.00,WeatherDisplay:10.37,2013-02-07 00:09:00,
2013-02-06 16:10:00,61.0,40.6,29.92,North,1,3.5,3.5,47,0.00,CLR,,0.00,WeatherDisplay:10.37,2013-02-07 00:10:00,
2013-02-06 16:11:00,61.0,40.6,29.92,North,0,1.1,0.0,47,0.00,CLR,,0.00,WeatherDisplay:10.37,2013-02-07 00:11:00,
2013-02-06 16:13:00,61.0,40.6,29.92,North,1,0.0,0.0,47,0.00,CLR,,0.00,WeatherDisplay:10.37,2013-02-07 00:13:00,
2013-02-06 16:14:00,61.0,40.6,29.92,North,0,0.0,0.0,47,0.00,CLR,,0.00,WeatherDisplay:10.37,2013-02-07 00:14:00,
2013-02-06 16:18:00,61.0,40.6,29.92,North,0,1.1,0.0,47,0.00,CLR,,0.00,WeatherDisplay:10.37,2013-02-07 00:18:00,
2013-02-06 16:19:00,61.0,40.6,29.92,North,1,0.0,0.0,47,0.00,CLR,,0.00,WeatherDisplay:10.37,2013-02-07 00:19:00,
2013-02-06 16:20:00,61.0,40.6,29.92,North,0,0.0,1.0,47,0.00,CLR,,0.00,WeatherDisplay:10.37,2013-02-07 00:20:00,
2013-02-06 16:24:00,60.9,40.5,29.92,North,0,0.0,0.0,47,0.00,CLR,,0.00,WeatherDisplay:10.37,2013-02-07 00:24:00,
2013-02-06 16:25:00,60.9,40.5,29.92,North,0,0.0,0.0,47,0.00,CLR,,0.00,WeatherDisplay:10.37,2013-02-07 00:25:00,
2013-02-06 16:26:00,60.9,41.1,29.92,North,0,0.0,0.0,48,0.00,CLR,,0.00,WeatherDisplay:10.37,2013-02-07 00:26:00,
2013-02-06 16:27:00,60.9,40.5,29.92,North,0,1.1,0.0,47,0.00,CLR,,0.00,WeatherDisplay:10.37,2013-02-07 00:27:00,
2013-02-06 16:30:00,60.9,41.1,29.92,North,0,0.0,1.0,48,0.00,CLR,,0.00,WeatherDisplay:10.37,2013-02-07 00:30:00,
2013-02-06 16:35:00,60.7,40.9,29.93,North,0,0.0,0.0,48,0.00,CLR,,0.00,WeatherDisplay:10.37,2013-02-07 00:35:00,
2013-02-06 16:36:00,60.7,40.9,29.92,North,0,0.0,0.0,48,0.00,CLR,,0.00,WeatherDisplay:10.37,2013-02-07 00:36:00,
2013-02-06 16:37:00,60.7,40.9,29.93,North,0,0.0,0.0,48,0.00,CLR,,0.00,WeatherDisplay:10.37,2013-02-07 00:37:00,
2013-02-06 16:39:00,60.7,40.9,29.93,North,0,0.0,0.0,48,0.00,CLR,,0.00,WeatherDisplay:10.37,2013-02-07 00:39:00,
2013-02-06 16:43:00,60.4,40.6,29.93,North,0,0.0,0.0,48,0.00,CLR,,0.00,WeatherDisplay:10.37,2013-02-07 00:43:00,
2013-02-06 16:44:00,60.4,40.6,29.93,North,0,0.0,0.0,48,0.00,CLR,,0.00,WeatherDisplay:10.37,2013-02-07 00:44:00,
2013-02-06 16:47:00,60.2,41.0,29.93,North,0,0.0,0.0,49,0.00,CLR,,0.00,WeatherDisplay:10.37,2013-02-07 00:47:00,
2013-02-06 16:50:00,60.2,41.0,29.93,North,0,0.0,1.0,49,0.00,CLR,,0.00,WeatherDisplay:10.37,2013-02-07 00:50:00,
2013-02-06 16:51:00,60.1,40.9,29.93,North,0,0.0,0.0,49,0.00,CLR,,0.00,WeatherDisplay:10.37,2013-02-07 00:51:00,
2013-02-06 16:53:00,59.9,41.2,29.93,North,0,0.0,0.0,50,0.00,CLR,,0.00,WeatherDisplay:10.37,2013-02-07 00:53:00,
2013-02-06 16:55:00,59.9,41.2,29.93,North,0,0.0,0.0,50,0.00,CLR,,0.00,WeatherDisplay:10.37,2013-02-07 00:55:00,
2013-02-06 16:59:00,59.8,41.1,29.93,North,0,0.0,0.0,50,0.00,CLR,,0.00,WeatherDisplay:10.37,2013-02-07 00:59:00,
2013-02-06 17:00:00,59.8,41.1,29.93,North,0,0.0,0.0,50,0.00,CLR,,0.00,WeatherDisplay:10.37,2013-02-07 01:00:00,
2013-02-06 17:02:00,59.6,41.4,29.93,North,0,0.0,0.0,51,0.00,CLR,,0.00,WeatherDisplay:10.37,2013-02-07 01:02:00,
2013-02-06 17:03:00,59.6,41.4,29.93,North,0,0.0,0.0,51,0.00,CLR,,0.00,WeatherDisplay:10.37,2013-02-07 01:03:00,
2013-02-06 17:04:00,59.5,41.3,29.93,North,0,0.0,0.0,51,0.00,CLR,,0.00,WeatherDisplay:10.37,2013-02-07 01:04:00,
2013-02-06 17:05:00,59.5,41.3,29.93,North,0,0.0,0.0,51,0.00,CLR,,0.00,WeatherDisplay:10.37,2013-02-07 01:05:00,
2013-02-06 17:09:00,59.3,41.2,29.94,North,0,0.0,0.0,51,0.00,CLR,,0.00,WeatherDisplay:10.37,2013-02-07 01:09:00,
2013-02-06 17:10:00,59.2,41.1,29.94,North,0,0.0,0.0,51,0.00,CLR,,0.00,WeatherDisplay:10.37,2013-02-07 01:10:00,
2013-02-06 17:14:00,59.0,41.4,29.94,North,0,0.0,0.0,52,0.00,CLR,,0.00,WeatherDisplay:10.37,2013-02-07 01:14:00,
2013-02-06 17:15:00,58.9,41.3,29.94,North,0,0.0,0.0,52,0.00,CLR,,0.00,WeatherDisplay:10.37,2013-02-07 01:15:00,
2013-02-06 17:17:00,58.7,41.1,29.94,North,0,0.0,0.0,52,0.00,CLR,,0.00,WeatherDisplay:10.37,2013-02-07 01:17:00,
2013-02-06 17:18:00,58.7,41.1,29.94,North,0,0.0,0.0,52,0.00,CLR,,0.00,WeatherDisplay:10.37,2013-02-07 01:18:00,
2013-02-06 17:20:00,58.6,41.5,29.94,North,0,0.0,0.0,53,0.00,CLR,,0.00,WeatherDisplay:10.37,2013-02-07 01:20:00,
2013-02-06 17:21:00,58.6,41.5,29.94,North,0,0.0,0.0,53,0.00,CLR,,0.00,WeatherDisplay:10.37,2013-02-07 01:21:00,
2013-02-06 17:23:00,58.3,41.7,29.94,North,0,0.0,0.0,54,0.00,CLR,,0.00,WeatherDisplay:10.37,2013-02-07 01:23:00,
2013-02-06 17:26:00,58.1,42.0,29.94,North,0,0.0,0.0,55,0.00,CLR,,0.00,WeatherDisplay:10.37,2013-02-07 01:26:00,
2013-02-06 17:27:00,57.8,41.7,29.94,North,0,0.0,0.0,55,0.00,CLR,,0.00,WeatherDisplay:10.37,2013-02-07 01:27:00,
2013-02-06 17:29:00,57.6,41.5,29.92,North,0,0.0,0.0,55,0.00,CLR,,0.00,WeatherDisplay:10.37,2013-02-07 01:29:00,
2013-02-06 17:31:00,57.5,41.9,29.92,North,0,0.0,0.0,56,0.00,CLR,,0.00,WeatherDisplay:10.37,2013-02-07 01:31:00,
2013-02-06 17:32:00,57.3,41.7,29.92,North,0,0.0,0.0,56,0.00,CLR,,0.00,WeatherDisplay:10.37,2013-02-07 01:32:00,
2013-02-06 17:34:00,57.0,41.9,29.92,North,0,0.0,0.0,57,0.00,CLR,,0.00,WeatherDisplay:10.37,2013-02-07 01:34:00,
2013-02-06 17:37:00,56.7,41.6,29.92,North,0,0.0,0.0,57,0.00,CLR,,0.00,WeatherDisplay:10.37,2013-02-07 01:37:00,
2013-02-06 17:39:00,56.5,41.4,29.93,North,0,0.0,0.0,57,0.00,CLR,,0.00,WeatherDisplay:10.37,2013-02-07 01:39:00,
2013-02-06 17:40:00,56.5,41.4,29.93,North,0,0.0,0.0,57,0.00,CLR,,0.00,WeatherDisplay:10.37,2013-02-07 01:40:00,
2013-02-06 17:42:00,56.0,41.4,29.93,North,0,0.0,0.0,58,0.00,CLR,,0.00,WeatherDisplay:10.37,2013-02-07 01:42:00,
2013-02-06 17:44:00,55.9,41.8,29.93,North,0,0.0,0.0,59,0.00,CLR,,0.00,WeatherDisplay:10.37,2013-02-07 01:44:00,
2013-02-06 17:46:00,55.6,41.5,29.93,North,0,0.0,0.0,59,0.00,CLR,,0.00,WeatherDisplay:10.37,2013-02-07 01:46:00,
2013-02-06 17:48:00,55.4,41.3,29.94,North,0,0.0,0.0,59,0.00,CLR,,0.00,WeatherDisplay:10.37,2013-02-07 01:48:00,
2013-02-06 17:50:00,55.3,41.2,29.94,North,0,0.0,0.0,59,0.00,CLR,,0.00,WeatherDisplay:10.37,2013-02-07 01:50:00,
2013-02-06 17:52:00,55.1,41.5,29.94,North,0,0.0,0.0,60,0.00,CLR,,0.00,WeatherDisplay:10.37,2013-02-07 01:52:00,
2013-02-06 17:53:00,54.8,41.2,29.94,North,0,0.0,0.0,60,0.00,CLR,,0.00,WeatherDisplay:10.37,2013-02-07 01:53:00,
2013-02-06 17:57:00,54.5,41.3,29.94,North,0,0.0,0.0,61,0.00,CLR,,0.00,WeatherDisplay:10.37,2013-02-07 01:57:00,
2013-02-06 17:59:00,54.4,41.2,29.94,North,0,0.0,0.0,61,0.00,CLR,,0.00,WeatherDisplay:10.37,2013-02-07 01:59:00,
2013-02-06 18:00:00,54.4,41.2,29.94,North,0,0.0,0.0,61,0.00,CLR,,0.00,WeatherDisplay:10.37,2013-02-07 02:00:00,
2013-02-06 18:02:00,54.2,41.0,29.94,North,0,0.0,0.0,61,0.00,CLR,,0.00,WeatherDisplay:10.37,2013-02-07 02:02:00,
2013-02-06 18:03:00,54.1,40.9,29.94,North,0,0.0,0.0,61,0.00,CLR,,0.00,WeatherDisplay:10.37,2013-02-07 02:03:00,
2013-02-06 18:06:00,53.9,41.2,29.94,North,0,0.0,0.0,62,0.00,CLR,,0.00,WeatherDisplay:10.37,2013-02-07 02:06:00,
2013-02-06 18:08:00,53.8,41.5,29.95,North,0,0.0,0.0,63,0.00,CLR,,0.00,WeatherDisplay:10.37,2013-02-07 02:08:00,
2013-02-06 18:10:00,53.6,41.3,29.95,North,0,0.0,0.0,63,0.00,CLR,,0.00,WeatherDisplay:10.37,2013-02-07 02:10:00,
2013-02-06 18:12:00,53.5,41.2,29.95,North,0,0.0,0.0,63,0.00,CLR,,0.00,WeatherDisplay:10.37,2013-02-07 02:12:00,
2013-02-06 18:14:00,53.5,41.6,29.95,North,0,0.0,0.0,64,0.00,CLR,,0.00,WeatherDisplay:10.37,2013-02-07 02:14:00,
2013-02-06 18:15:00,53.3,41.4,29.95,North,0,0.0,0.0,64,0.00,CLR,,0.00,WeatherDisplay:10.37,2013-02-07 02:15:00,
2013-02-06 18:18:00,53.2,41.3,29.95,North,0,0.0,0.0,64,0.00,CLR,,0.00,WeatherDisplay:10.37,2013-02-07 02:18:00,
2013-02-06 18:20:00,53.2,41.3,29.95,North,0,0.0,0.0,64,0.00,CLR,,0.00,WeatherDisplay:10.37,2013-02-07 02:20:00,
2013-02-06 18:21:00,53.1,41.2,29.95,North,0,0.0,0.0,64,0.00,CLR,,0.00,WeatherDisplay:10.37,2013-02-07 02:21:00,
2013-02-06 18:23:00,52.9,41.0,29.95,North,0,0.0,0.0,64,0.00,CLR,,0.00,WeatherDisplay:10.37,2013-02-07 02:23:00,
2013-02-06 18:25:00,52.8,41.4,29.95,North,0,0.0,0.0,65,0.00,CLR,,0.00,WeatherDisplay:10.37,2013-02-07 02:25:00,
2013-02-06 18:26:00,52.8,41.4,29.95,North,0,0.0,0.0,65,0.00,CLR,,0.00,WeatherDisplay:10.37,2013-02-07 02:26:00,
2013-02-06 18:28:00,52.6,41.2,29.95,North,0,0.0,0.0,65,0.00,CLR,,0.00,WeatherDisplay:10.37,2013-02-07 02:28:00,
2013-02-06 18:30:00,52.6,41.2,29.95,North,0,0.0,0.0,65,0.00,CLR,,0.00,WeatherDisplay:10.37,2013-02-07 02:30:00,
2013-02-06 18:32:00,52.5,41.5,29.95,North,0,0.0,0.0,66,0.00,CLR,,0.00,WeatherDisplay:10.37,2013-02-07 02:32:00,
2013-02-06 18:33:00,52.5,41.5,29.95,East,100,0.0,0.0,66,0.00,CLR,,0.00,WeatherDisplay:10.37,2013-02-07 02:33:00,
2013-02-06 18:35:00,52.5,41.5,29.95,NE,35,0.0,0.0,66,0.00,CLR,,0.00,WeatherDisplay:10.37,2013-02-07 02:35:00,
2013-02-06 18:38:00,52.5,41.5,29.95,East,100,0.0,0.0,66,0.00,CLR,,0.00,WeatherDisplay:10.37,2013-02-07 02:38:00,
2013-02-06 18:39:00,52.5,41.5,29.95,East,100,0.0,0.0,66,0.00,CLR,,0.00,WeatherDisplay:10.37,2013-02-07 02:39:00,
2013-02-06 18:40:00,52.5,41.5,29.95,East,100,0.0,0.0,66,0.00,CLR,,0.00,WeatherDisplay:10.37,2013-02-07 02:40:00,
2013-02-06 18:43:00,52.3,41.3,29.96,East,100,0.0,0.0,66,0.00,CLR,,0.00,WeatherDisplay:10.37,2013-02-07 02:43:00,
2013-02-06 18:44:00,52.3,41.3,29.96,East,100,0.0,0.0,66,0.00,CLR,,0.00,WeatherDisplay:10.37,2013-02-07 02:44:00,
2013-02-06 18:48:00,52.0,41.0,29.96,East,100,0.0,0.0,66,0.00,CLR,,0.00,WeatherDisplay:10.37,2013-02-07 02:48:00,
2013-02-06 18:50:00,51.9,40.9,29.96,East,100,0.0,0.0,66,0.00,CLR,,0.00,WeatherDisplay:10.37,2013-02-07 02:50:00,
2013-02-06 18:51:00,51.9,41.3,29.96,East,100,0.0,0.0,67,0.00,CLR,,0.00,WeatherDisplay:10.37,2013-02-07 02:51:00,
2013-02-06 18:53:00,51.7,41.1,29.96,East,100,0.0,0.0,67,0.00,CLR,,0.00,WeatherDisplay:10.37,2013-02-07 02:53:00,
2013-02-06 18:55:00,51.6,41.0,29.96,East,100,0.0,0.0,67,0.00,CLR,,0.00,WeatherDisplay:10.37,2013-02-07 02:55:00,
2013-02-06 18:57:00,51.4,40.8,29.96,East,100,0.0,0.0,67,0.00,CLR,,0.00,WeatherDisplay:10.37,2013-02-07 02:57:00,
2013-02-06 18:58:00,51.3,40.7,29.97,East,100,0.0,0.0,67,0.00,CLR,,0.00,WeatherDisplay:10.37,2013-02-07 02:58:00,
2013-02-06 19:00:00,51.1,40.5,29.97,East,100,0.0,0.0,67,0.00,CLR,,0.00,WeatherDisplay:10.37,2013-02-07 03:00:00,
2013-02-06 19:02:00,51.0,40.8,29.97,East,100,0.0,0.0,68,0.00,CLR,,0.00,WeatherDisplay:10.37,2013-02-07 03:02:00,
2013-02-06 19:04:00,50.8,40.6,29.97,East,100,0.0,0.0,68,0.00,CLR,,0.00,WeatherDisplay:10.37,2013-02-07 03:04:00,
2013-02-06 19:05:00,50.9,40.7,29.97,East,100,0.0,0.0,68,0.00,CLR,,0.00,WeatherDisplay:10.37,2013-02-07 03:05:00,
2013-02-06 19:10:00,50.5,40.3,29.97,East,95,0.0,0.0,68,0.00,CLR,,0.00,WeatherDisplay:10.37,2013-02-07 03:10:00,
2013-02-06 19:12:00,50.5,39.9,29.97,East,95,0.0,0.0,67,0.00,CLR,,0.00,WeatherDisplay:10.37,2013-02-07 03:12:00,
2013-02-06 19:15:00,50.4,39.9,29.98,East,95,0.0,0.0,67,0.00,CLR,,0.00,WeatherDisplay:10.37,2013-02-07 03:15:00,
2013-02-06 19:18:00,50.4,39.9,29.98,East,95,0.0,0.0,67,0.00,CLR,,0.00,WeatherDisplay:10.37,2013-02-07 03:18:00,
2013-02-06 19:20:00,50.2,40.0,29.98,East,95,0.0,0.0,68,0.00,CLR,,0.00,WeatherDisplay:10.37,2013-02-07 03:20:00,
2013-02-06 19:21:00,50.2,40.0,29.98,East,95,0.0,0.0,68,0.00,CLR,,0.00,WeatherDisplay:10.37,2013-02-07 03:21:00,
2013-02-06 19:24:00,50.2,40.0,29.98,East,95,0.0,0.0,68,0.00,CLR,,0.00,WeatherDisplay:10.37,2013-02-07 03:24:00,
2013-02-06 19:26:00,50.1,39.9,29.98,East,95,0.0,0.0,68,0.00,CLR,,0.00,WeatherDisplay:10.37,2013-02-07 03:26:00,
2013-02-06 19:27:00,50.1,39.9,29.98,East,95,0.0,0.0,68,0.00,CLR,,0.00,WeatherDisplay:10.37,2013-02-07 03:27:00,
2013-02-06 19:29:00,50.1,39.6,29.99,East,95,0.0,0.0,67,0.00,CLR,,0.00,WeatherDisplay:10.37,2013-02-07 03:29:00,
2013-02-06 19:30:00,50.1,39.6,29.99,East,95,0.0,0.0,67,0.00,CLR,,0.00,WeatherDisplay:10.37,2013-02-07 03:30:00,
2013-02-06 19:32:00,50.1,39.6,29.99,East,95,0.0,0.0,67,0.00,CLR,,0.00,WeatherDisplay:10.37,2013-02-07 03:32:00,
2013-02-06 19:33:00,50.1,39.6,29.99,East,95,0.0,0.0,67,0.00,CLR,,0.00,WeatherDisplay:10.37,2013-02-07 03:33:00,
2013-02-06 19:35:00,50.1,39.6,29.99,East,95,0.0,0.0,67,0.00,CLR,,0.00,WeatherDisplay:10.37,2013-02-07 03:35:00,
2013-02-06 19:39:00,49.9,39.8,29.99,East,95,0.0,0.0,68,0.00,CLR,,0.00,WeatherDisplay:10.37,2013-02-07 03:39:00,
2013-02-06 19:41:00,49.8,39.7,29.99,East,95,0.0,0.0,68,0.00,CLR,,0.00,WeatherDisplay:10.37,2013-02-07 03:41:00,
2013-02-06 19:44:00,49.8,39.7,29.99,East,95,0.0,0.0,68,0.00,CLR,,0.00,WeatherDisplay:10.37,2013-02-07 03:44:00,
2013-02-06 19:46:00,49.6,39.5,29.99,East,95,0.0,0.0,68,0.00,CLR,,0.00,WeatherDisplay:10.37,2013-02-07 03:46:00,
2013-02-06 19:49:00,49.6,39.5,29.99,East,95,0.0,0.0,68,0.00,CLR,,0.00,WeatherDisplay:10.37,2013-02-07 03:49:00,
2013-02-06 19:50:00,49.6,39.5,29.99,East,95,0.0,0.0,68,0.00,CLR,,0.00,WeatherDisplay:10.37,2013-02-07 03:50:00,
2013-02-06 19:53:00,49.5,39.4,29.99,East,95,0.0,0.0,68,0.00,CLR,,0.00,WeatherDisplay:10.37,2013-02-07 03:53:00,
2013-02-06 19:54:00,49.5,39.4,29.99,East,95,0.0,0.0,68,0.00,CLR,,0.00,WeatherDisplay:10.37,2013-02-07 03:54:00,
2013-02-06 19:55:00,49.5,39.4,29.99,East,95,0.0,0.0,68,0.00,CLR,,0.00,WeatherDisplay:10.37,2013-02-07 03:55:00,
2013-02-06 19:57:00,49.4,39.3,30.00,East,95,0.0,0.0,68,0.00,CLR,,0.00,WeatherDisplay:10.37,2013-02-07 03:57:00,
2013-02-06 19:59:00,49.4,39.7,30.00,East,95,0.0,0.0,69,0.00,CLR,,0.00,WeatherDisplay:10.37,2013-02-07 03:59:00,
2013-02-06 20:00:00,49.4,39.3,30.00,East,95,0.0,0.0,68,0.00,CLR,,0.00,WeatherDisplay:10.37,2013-02-07 04:00:00,
2013-02-06 20:05:00,49.1,39.4,30.00,East,82,0.0,0.0,69,0.00,CLR,,0.00,WeatherDisplay:10.37,2013-02-07 04:05:00,
2013-02-06 20:06:00,49.1,39.4,30.00,East,82,0.0,0.0,69,0.00,CLR,,0.00,WeatherDisplay:10.37,2013-02-07 04:06:00,
2013-02-06 20:07:00,49.1,39.0,30.00,East,82,0.0,0.0,68,0.00,CLR,,0.00,WeatherDisplay:10.37,2013-02-07 04:07:00,
2013-02-06 20:10:00,48.9,38.8,30.00,East,82,0.0,0.0,68,0.00,CLR,,0.00,WeatherDisplay:10.37,2013-02-07 04:10:00,
2013-02-06 20:11:00,48.9,38.8,30.00,East,82,0.0,0.0,68,0.00,CLR,,0.00,WeatherDisplay:10.37,2013-02-07 04:11:00,
2013-02-06 20:12:00,48.9,38.8,30.00,East,82,0.0,0.0,68,0.00,CLR,,0.00,WeatherDisplay:10.37,2013-02-07 04:12:00,
2013-02-06 20:16:00,48.9,38.8,30.00,ENE,75,0.0,0.0,68,0.00,CLR,,0.00,WeatherDisplay:10.37,2013-02-07 04:16:00,
2013-02-06 20:17:00,48.8,38.7,30.00,ENE,75,0.0,0.0,68,0.00,CLR,,0.00,WeatherDisplay:10.37,2013-02-07 04:17:00,
2013-02-06 20:20:00,48.8,38.7,30.00,ENE,75,0.0,0.0,68,0.00,CLR,,0.00,WeatherDisplay:10.37,2013-02-07 04:20:00,
2013-02-06 20:22:00,48.8,38.7,30.00,ENE,73,0.0,0.0,68,0.00,CLR,,0.00,WeatherDisplay:10.37,2013-02-07 04:22:00,
2013-02-06 20:24:00,48.6,38.9,30.01,ENE,74,0.0,0.0,69,0.00,CLR,,0.00,WeatherDisplay:10.37,2013-02-07 04:24:00,
2013-02-06 20:28:00,48.6,38.9,30.01,ENE,73,0.0,0.0,69,0.00,CLR,,0.00,WeatherDisplay:10.37,2013-02-07 04:28:00,
2013-02-06 20:29:00,48.6,38.9,30.00,ENE,67,0.0,0.0,69,0.00,CLR,,0.00,WeatherDisplay:10.37,2013-02-07 04:29:00,
2013-02-06 20:34:00,48.5,38.8,30.00,East,81,0.0,0.0,69,0.00,CLR,,0.00,WeatherDisplay:10.37,2013-02-07 04:34:00,
2013-02-06 20:35:00,48.5,38.8,30.00,East,81,0.0,0.0,69,0.00,CLR,,0.00,WeatherDisplay:10.37,2013-02-07 04:35:00,
2013-02-06 20:37:00,48.3,38.6,30.00,East,81,0.0,0.0,69,0.00,CLR,,0.00,WeatherDisplay:10.37,2013-02-07 04:37:00,
2013-02-06 20:38:00,48.3,38.6,30.00,East,81,0.0,0.0,69,0.00,CLR,,0.00,WeatherDisplay:10.37,2013-02-07 04:38:00,
2013-02-06 20:40:00,48.3,38.6,30.00,East,87,0.0,0.0,69,0.00,CLR,,0.00,WeatherDisplay:10.37,2013-02-07 04:40:00,
2013-02-06 20:43:00,48.3,38.6,30.00,ESE,103,0.0,0.0,69,0.00,CLR,,0.00,WeatherDisplay:10.37,2013-02-07 04:43:00,
2013-02-06 20:44:00,48.3,38.6,30.00,East,89,0.0,0.0,69,0.00,CLR,,0.00,WeatherDisplay:10.37,2013-02-07 04:44:00,
2013-02-06 20:45:00,48.2,38.5,30.00,East,87,0.0,0.0,69,0.00,CLR,,0.00,WeatherDisplay:10.37,2013-02-07 04:45:00,
2013-02-06 20:48:00,48.2,38.5,30.00,East,87,0.0,0.0,69,0.00,CLR,,0.00,WeatherDisplay:10.37,2013-02-07 04:48:00,
2013-02-06 20:49:00,48.2,38.5,30.00,East,87,0.0,0.0,69,0.00,CLR,,0.00,WeatherDisplay:10.37,2013-02-07 04:49:00,
2013-02-06 20:53:00,48.0,38.3,30.00,East,87,0.0,0.0,69,0.00,CLR,,0.00,WeatherDisplay:10.37,2013-02-07 04:53:00,
2013-02-06 20:54:00,48.0,38.3,30.00,East,87,0.0,0.0,69,0.00,CLR,,0.00,WeatherDisplay:10.37,2013-02-07 04:54:00,
2013-02-06 20:55:00,48.0,38.3,30.00,East,87,0.0,0.0,69,0.00,CLR,,0.00,WeatherDisplay:10.37,2013-02-07 04:55:00,
2013-02-06 20:56:00,48.0,38.3,30.00,East,87,0.0,0.0,69,0.00,CLR,,0.00,WeatherDisplay:10.37,2013-02-07 04:56:00,
2013-02-06 21:00:00,47.9,38.2,30.00,East,87,0.0,0.0,69,0.00,CLR,,0.00,WeatherDisplay:10.37,2013-02-07 05:00:00,
2013-02-06 21:01:00,47.9,38.2,30.00,East,87,0.0,0.0,69,0.00,CLR,,0.00,WeatherDisplay:10.37,2013-02-07 05:01:00,
2013-02-06 21:06:00,47.7,38.4,30.00,East,87,0.0,0.0,70,0.00,CLR,,0.00,WeatherDisplay:10.37,2013-02-07 05:06:00,
2013-02-06 21:07:00,47.7,38.4,30.00,East,87,0.0,0.0,70,0.00,CLR,,0.00,WeatherDisplay:10.37,2013-02-07 05:07:00,
2013-02-06 21:09:00,47.6,38.3,30.00,East,87,0.0,0.0,70,0.00,CLR,,0.00,WeatherDisplay:10.37,2013-02-07 05:09:00,
2013-02-06 21:12:00,47.6,38.3,30.00,East,87,0.0,0.0,70,0.00,CLR,,0.00,WeatherDisplay:10.37,2013-02-07 05:12:00,
2013-02-06 21:14:00,47.6,38.3,30.00,East,87,0.0,0.0,70,0.00,CLR,,0.00,WeatherDisplay:10.37,2013-02-07 05:14:00,
2013-02-06 21:17:00,47.4,38.1,30.01,East,87,0.0,0.0,70,0.00,CLR,,0.00,WeatherDisplay:10.37,2013-02-07 05:17:00,
2013-02-06 21:19:00,47.3,38.0,30.01,East,87,0.0,0.0,70,0.00,CLR,,0.00,WeatherDisplay:10.37,2013-02-07 05:19:00,
2013-02-06 21:20:00,47.3,38.0,30.01,East,87,0.0,0.0,70,0.00,CLR,,0.00,WeatherDisplay:10.37,2013-02-07 05:20:00,
2013-02-06 21:21:00,47.1,38.2,30.01,East,87,0.0,0.0,71,0.00,CLR,,0.00,WeatherDisplay:10.37,2013-02-07 05:21:00,
2013-02-06 21:23:00,47.1,38.2,30.01,East,87,0.0,0.0,71,0.00,CLR,,0.00,WeatherDisplay:10.37,2013-02-07 05:23:00,
2013-02-06 21:25:00,47.0,38.1,30.02,East,87,0.0,0.0,71,0.00,CLR,,0.00,WeatherDisplay:10.37,2013-02-07 05:25:00,
2013-02-06 21:26:00,47.0,38.1,30.02,East,87,0.0,0.0,71,0.00,CLR,,0.00,WeatherDisplay:10.37,2013-02-07 05:26:00,
2013-02-06 21:28:00,46.8,37.9,30.02,East,87,0.0,0.0,71,0.00,CLR,,0.00,WeatherDisplay:10.37,2013-02-07 05:28:00,
2013-02-06 21:30:00,46.8,37.9,30.01,East,87,0.0,0.0,71,0.00,CLR,,0.00,WeatherDisplay:10.37,2013-02-07 05:30:00,
2013-02-06 21:31:00,46.8,37.9,30.01,East,87,0.0,0.0,71,0.00,CLR,,0.00,WeatherDisplay:10.37,2013-02-07 05:31:00,
2013-02-06 21:33:00,46.7,38.1,30.01,East,87,0.0,0.0,72,0.00,CLR,,0.00,WeatherDisplay:10.37,2013-02-07 05:33:00,
2013-02-06 21:36:00,46.5,38.0,30.01,East,87,0.0,0.0,72,0.00,CLR,,0.00,WeatherDisplay:10.37,2013-02-07 05:36:00,
2013-02-06 21:39:00,46.4,37.9,30.02,East,87,0.0,0.0,72,0.00,CLR,,0.00,WeatherDisplay:10.37,2013-02-07 05:39:00,
2013-02-06 21:41:00,46.2,37.7,30.02,East,87,0.0,0.0,72,0.00,CLR,,0.00,WeatherDisplay:10.37,2013-02-07 05:41:00,
2013-02-06 21:44:00,46.2,37.7,30.02,East,87,0.0,0.0,72,0.00,CLR,,0.00,WeatherDisplay:10.37,2013-02-07 05:44:00,
2013-02-06 21:48:00,46.0,37.5,30.02,East,87,0.0,0.0,72,0.00,CLR,,0.00,WeatherDisplay:10.37,2013-02-07 05:48:00,
2013-02-06 21:49:00,46.0,37.5,30.02,East,87,0.0,0.0,72,0.00,CLR,,0.00,WeatherDisplay:10.37,2013-02-07 05:49:00,
2013-02-06 21:51:00,45.8,37.6,30.02,East,87,0.0,0.0,73,0.00,CLR,,0.00,WeatherDisplay:10.37,2013-02-07 05:51:00,
2013-02-06 21:54:00,45.8,37.6,30.02,East,87,0.0,0.0,73,0.00,CLR,,0.00,WeatherDisplay:10.37,2013-02-07 05:54:00,
2013-02-06 21:55:00,45.7,37.5,30.02,East,87,0.0,0.0,73,0.00,CLR,,0.00,WeatherDisplay:10.37,2013-02-07 05:55:00,
2013-02-06 21:57:00,45.7,37.5,30.02,East,87,0.0,0.0,73,0.00,CLR,,0.00,WeatherDisplay:10.37,2013-02-07 05:57:00,
2013-02-06 21:59:00,45.7,37.5,30.02,East,87,0.0,0.0,73,0.00,CLR,,0.00,WeatherDisplay:10.37,2013-02-07 05:59:00,
2013-02-06 22:00:00,45.7,37.5,30.02,East,87,0.0,0.0,73,0.00,CLR,,0.00,WeatherDisplay:10.37,2013-02-07 06:00:00,
2013-02-06 22:02:00,45.5,37.3,30.02,East,87,0.0,0.0,73,0.00,CLR,,0.00,WeatherDisplay:10.37,2013-02-07 06:02:00,
2013-02-06 22:06:00,45.5,37.3,30.02,East,87,0.0,0.0,73,0.00,CLR,,0.00,WeatherDisplay:10.37,2013-02-07 06:06:00,
2013-02-06 22:10:00,45.4,37.2,30.02,East,87,0.0,0.0,73,0.00,CLR,,0.00,WeatherDisplay:10.37,2013-02-07 06:10:00,
2013-02-06 22:11:00,45.2,37.1,30.02,East,87,0.0,0.0,73,0.00,CLR,,0.00,WeatherDisplay:10.37,2013-02-07 06:11:00,
2013-02-06 22:12:00,45.2,37.1,30.02,East,87,0.0,0.0,73,0.00,CLR,,0.00,WeatherDisplay:10.37,2013-02-07 06:12:00,
2013-02-06 22:13:00,45.2,37.1,30.02,East,87,0.0,0.0,73,0.00,CLR,,0.00,WeatherDisplay:10.37,2013-02-07 06:13:00,
2013-02-06 22:17:00,44.9,36.8,30.02,East,87,0.0,0.0,73,0.00,CLR,,0.00,WeatherDisplay:10.37,2013-02-07 06:17:00,
2013-02-06 22:19:00,44.8,36.7,30.02,East,87,0.0,0.0,73,0.00,CLR,,0.00,WeatherDisplay:10.37,2013-02-07 06:19:00,
2013-02-06 22:20:00,44.8,36.7,30.02,East,87,0.0,0.0,73,0.00,CLR,,0.00,WeatherDisplay:10.37,2013-02-07 06:20:00,
2013-02-06 22:24:00,44.6,36.8,30.02,East,87,0.0,0.0,74,0.00,CLR,,0.00,WeatherDisplay:10.37,2013-02-07 06:24:00,
2013-02-06 22:25:00,44.6,36.8,30.02,East,87,0.0,0.0,74,0.00,CLR,,0.00,WeatherDisplay:10.37,2013-02-07 06:25:00,
2013-02-06 22:26:00,44.5,36.7,30.02,East,87,0.0,0.0,74,0.00,CLR,,0.00,WeatherDisplay:10.37,2013-02-07 06:26:00,
2013-02-06 22:29:00,44.3,36.5,30.02,East,87,0.0,0.0,74,0.00,CLR,,0.00,WeatherDisplay:10.37,2013-02-07 06:29:00,
2013-02-06 22:30:00,44.3,36.5,30.02,East,87,0.0,0.0,74,0.00,CLR,,0.00,WeatherDisplay:10.37,2013-02-07 06:30:00,
2013-02-06 22:31:00,44.2,36.8,30.02,East,87,0.0,0.0,75,0.00,CLR,,0.00,WeatherDisplay:10.37,2013-02-07 06:31:00,
2013-02-06 22:34:00,44.1,36.7,30.02,East,87,0.0,0.0,75,0.00,CLR,,0.00,WeatherDisplay:10.37,2013-02-07 06:34:00,
2013-02-06 22:36:00,44.1,36.7,30.02,East,87,0.0,0.0,75,0.00,CLR,,0.00,WeatherDisplay:10.37,2013-02-07 06:36:00,
2013-02-06 22:38:00,43.9,36.5,30.02,East,87,0.0,0.0,75,0.00,CLR,,0.00,WeatherDisplay:10.37,2013-02-07 06:38:00,
2013-02-06 22:41:00,43.9,36.8,30.02,East,87,0.0,0.0,76,0.00,CLR,,0.00,WeatherDisplay:10.37,2013-02-07 06:41:00,
2013-02-06 22:42:00,43.8,36.7,30.02,East,87,0.0,0.0,76,0.00,CLR,,0.00,WeatherDisplay:10.37,2013-02-07 06:42:00,
2013-02-06 22:44:00,43.8,36.7,30.03,East,87,0.0,0.0,76,0.00,CLR,,0.00,WeatherDisplay:10.37,2013-02-07 06:44:00,
2013-02-06 22:46:00,43.6,36.5,30.02,East,87,0.0,0.0,76,0.00,CLR,,0.00,WeatherDisplay:10.37,2013-02-07 06:46:00,
2013-02-06 22:48:00,43.6,36.5,30.02,East,87,0.0,0.0,76,0.00,CLR,,0.00,WeatherDisplay:10.37,2013-02-07 06:48:00,
2013-02-06 22:49:00,43.5,36.4,30.03,East,87,0.0,0.0,76,0.00,CLR,,0.00,WeatherDisplay:10.37,2013-02-07 06:49:00,
2013-02-06 22:51:00,43.5,36.4,30.03,East,87,0.0,0.0,76,0.00,CLR,,0.00,WeatherDisplay:10.37,2013-02-07 06:51:00,
2013-02-06 22:54:00,43.3,36.2,30.03,East,87,0.0,0.0,76,0.00,CLR,,0.00,WeatherDisplay:10.37,2013-02-07 06:54:00,
2013-02-06 22:56:00,43.3,36.6,30.03,East,87,0.0,0.0,77,0.00,CLR,,0.00,WeatherDisplay:10.37,2013-02-07 06:56:00,
2013-02-06 22:58:00,43.2,36.5,30.03,East,87,0.0,0.0,77,0.00,CLR,,0.00,WeatherDisplay:10.37,2013-02-07 06:58:00,
2013-02-06 23:00:00,43.2,36.5,30.03,East,87,0.0,0.0,77,0.00,CLR,,0.00,WeatherDisplay:10.37,2013-02-07 07:00:00,
2013-02-06 23:03:00,43.1,36.4,30.03,East,87,0.0,0.0,77,0.00,CLR,,0.00,WeatherDisplay:10.37,2013-02-07 07:03:00,
2013-02-06 23:05:00,43.1,36.4,30.03,East,87,0.0,0.0,77,0.00,CLR,,0.00,WeatherDisplay:10.37,2013-02-07 07:05:00,
2013-02-06 23:07:00,43.1,36.7,30.03,East,87,0.0,0.0,78,0.00,CLR,,0.00,WeatherDisplay:10.37,2013-02-07 07:07:00,
2013-02-06 23:09:00,43.1,36.7,30.03,East,87,0.0,0.0,78,0.00,CLR,,0.00,WeatherDisplay:10.37,2013-02-07 07:09:00,
2013-02-06 23:11:00,43.1,36.7,30.03,East,87,0.0,0.0,78,0.00,CLR,,0.00,WeatherDisplay:10.37,2013-02-07 07:11:00,
2013-02-06 23:12:00,43.1,36.7,30.03,East,87,0.0,0.0,78,0.00,CLR,,0.00,WeatherDisplay:10.37,2013-02-07 07:12:00,
2013-02-06 23:14:00,43.1,36.7,30.03,East,87,0.0,0.0,78,0.00,CLR,,0.00,WeatherDisplay:10.37,2013-02-07 07:14:00,
2013-02-06 23:18:00,42.9,36.5,30.03,East,87,0.0,0.0,78,0.00,CLR,,0.00,WeatherDisplay:10.37,2013-02-07 07:18:00,
2013-02-06 23:20:00,42.9,36.5,30.03,East,87,0.0,0.0,78,0.00,CLR,,0.00,WeatherDisplay:10.37,2013-02-07 07:20:00,
2013-02-06 23:25:00,42.8,36.4,30.03,East,87,0.0,0.0,78,0.00,CLR,,0.00,WeatherDisplay:10.37,2013-02-07 07:25:00,
2013-02-06 23:30:00,42.6,36.2,30.03,East,87,0.0,0.0,78,0.00,CLR,,0.00,WeatherDisplay:10.37,2013-02-07 07:30:00,
2013-02-06 23:31:00,42.6,36.2,30.03,East,87,0.0,0.0,78,0.00,CLR,,0.00,WeatherDisplay:10.37,2013-02-07 07:31:00,
2013-02-06 23:32:00,42.6,36.2,30.03,East,87,0.0,0.0,78,0.00,CLR,,0.00,WeatherDisplay:10.37,2013-02-07 07:32:00,
2013-02-06 23:36:00,42.5,36.1,30.02,East,87,0.0,0.0,78,0.00,CLR,,0.00,WeatherDisplay:10.37,2013-02-07 07:36:00,
2013-02-06 23:37:00,42.5,36.1,30.02,East,87,0.0,0.0,78,0.00,CLR,,0.00,WeatherDisplay:10.37,2013-02-07 07:37:00,
2013-02-06 23:39:00,42.5,36.1,30.02,East,87,0.0,0.0,78,0.00,CLR,,0.00,WeatherDisplay:10.37,2013-02-07 07:39:00,
2013-02-06 23:41:00,42.3,36.3,30.03,East,87,0.0,0.0,79,0.00,CLR,,0.00,WeatherDisplay:10.37,2013-02-07 07:41:00,
2013-02-06 23:44:00,42.2,35.8,30.03,East,87,0.0,0.0,78,0.00,CLR,,0.00,WeatherDisplay:10.37,2013-02-07 07:44:00,
2013-02-06 23:47:00,42.2,36.2,30.03,East,87,0.0,0.0,79,0.00,CLR,,0.00,WeatherDisplay:10.37,2013-02-07 07:47:00,
2013-02-06 23:49:00,42.1,36.1,30.02,East,87,0.0,0.0,79,0.00,CLR,,0.00,WeatherDisplay:10.37,2013-02-07 07:49:00,
2013-02-06 23:50:00,42.1,36.1,30.03,East,87,0.0,0.0,79,0.00,CLR,,0.00,WeatherDisplay:10.37,2013-02-07 07:50:00,
2013-02-06 23:52:00,42.1,36.1,30.03,East,87,0.0,0.0,79,0.00,CLR,,0.00,WeatherDisplay:10.37,2013-02-07 07:52:00,
2013-02-06 23:55:00,41.9,35.9,30.03,East,87,0.0,0.0,79,0.00,CLR,,0.00,WeatherDisplay:10.37,2013-02-07 07:55:00,